Wetterdaten: Dienstag, 15.11.2016
Datum Zeit Temp. Aussen Temp. o. S. +5cm Feuchte Auss BlattFeu 1 Luftdruck Regen Sonnenschein Regendauer Solar Windben Empfang
15.11.2016 00:00 3,8 C 3,9 C 2,8 C 95 % 13 lf 1027,6 hPa 0,0 l/m 0 min 2 min 0 W/m 14,6 km/h (3 Bft) 97,87 %
15.11.2016 00:02 3,8 C 3,9 C 2,8 C 95 % 13 lf 1027,6 hPa 0,0 l/m 0 min 2 min 0 W/m 18,8 km/h (3 Bft) 97,22 %
15.11.2016 00:05 3,8 C 3,9 C 2,8 C 95 % 13 lf 1027,6 hPa 0,0 l/m 0 min 2 min 0 W/m 18,8 km/h (3 Bft) 98,61 %
15.11.2016 00:06 3,8 C 3,9 C 2,8 C 95 % 13 lf 1027,5 hPa 0,0 l/m 0 min 1 min 0 W/m 14,6 km/h (3 Bft) 100,00 %
15.11.2016 00:08 3,8 C 3,9 C 2,8 C 95 % 13 lf 1027,6 hPa 0,0 l/m 0 min 2 min 0 W/m 18,8 km/h (3 Bft) 100,00 %
15.11.2016 00:10 3,8 C 3,9 C 2,8 C 95 % 13 lf 1027,6 hPa 0,0 l/m 0 min 2 min 0 W/m 18,8 km/h (3 Bft) 95,74 %
15.11.2016 00:12 3,8 C 3,9 C 2,8 C 95 % 13 lf 1027,5 hPa 0,0 l/m 0 min 0 min 0 W/m 18,8 km/h (3 Bft) 97,87 %
15.11.2016 00:14 3,8 C 3,9 C 2,8 C 95 % 12 lf 1027,5 hPa 0,0 l/m 0 min 2 min 0 W/m 16,7 km/h (3 Bft) 95,65 %
15.11.2016 00:16 3,8 C 3,9 C 2,8 C 96 % 12 lf 1027,4 hPa 0,0 l/m 0 min 0 min 0 W/m 16,7 km/h (3 Bft) 97,87 %
15.11.2016 00:18 3,8 C 3,9 C 2,8 C 96 % 12 lf 1027,4 hPa 0,0 l/m 0 min 0 min 0 W/m 18,8 km/h (3 Bft) 93,62 %
15.11.2016 00:20 3,8 C 3,9 C 2,8 C 96 % 12 lf 1027,4 hPa 0,0 l/m 0 min 0 min 0 W/m 16,7 km/h (3 Bft) 95,74 %
15.11.2016 00:22 3,8 C 3,9 C 2,8 C 96 % 11 lf 1027,3 hPa 0,0 l/m 0 min 0 min 0 W/m 14,6 km/h (3 Bft) 95,74 %
15.11.2016 00:24 3,8 C 3,9 C 2,8 C 96 % 11 lf 1027,3 hPa 0,0 l/m 0 min 0 min 0 W/m 18,8 km/h (3 Bft) 100,00 %
15.11.2016 00:26 3,8 C 3,9 C 2,8 C 96 % 10 lf 1027,4 hPa 0,0 l/m 0 min 0 min 0 W/m 25,1 km/h (4 Bft) 97,83 %
15.11.2016 00:28 3,8 C 3,9 C 2,8 C 96 % 10 lf 1027,4 hPa 0,0 l/m 0 min 2 min 0 W/m 18,8 km/h (3 Bft) 95,74 %
15.11.2016 00:30 3,8 C 3,9 C 2,8 C 96 % 9 lf 1027,3 hPa 0,2 l/m 0 min 0 min 0 W/m 16,7 km/h (3 Bft) 97,87 %
15.11.2016 00:32 3,8 C 3,9 C 2,8 C 96 % 8 lf 1027,3 hPa 0,0 l/m 0 min 2 min 0 W/m 18,8 km/h (3 Bft) 97,87 %
15.11.2016 00:34 3,8 C 3,9 C 2,8 C 96 % 7 lf 1027,2 hPa 0,0 l/m 0 min 2 min 0 W/m 18,8 km/h (3 Bft) 97,87 %
15.11.2016 00:36 3,8 C 3,9 C 2,8 C 96 % 6 lf 1027,2 hPa 0,0 l/m 0 min 0 min 0 W/m 16,7 km/h (3 Bft) 96,23 %
15.11.2016 00:38 3,8 C 3,9 C 2,8 C 96 % 4 lf 1027,2 hPa 0,0 l/m 0 min 0 min 0 W/m 25,1 km/h (4 Bft) 97,87 %
15.11.2016 00:40 3,8 C 3,9 C 2,8 C 96 % 4 lf 1027,1 hPa 0,0 l/m 0 min 0 min 0 W/m 20,9 km/h (4 Bft) 97,87 %
15.11.2016 00:42 3,8 C 3,9 C 2,8 C 96 % 3 lf 1027,1 hPa 0,0 l/m 0 min 0 min 0 W/m 18,8 km/h (3 Bft) 97,87 %
15.11.2016 00:44 3,9 C 3,9 C 2,8 C 96 % 3 lf 1027,1 hPa 0,0 l/m 0 min 0 min 0 W/m 23,0 km/h (4 Bft) 97,87 %
15.11.2016 00:46 3,9 C 3,9 C 2,8 C 96 % 2 lf 1027,0 hPa 0,0 l/m 0 min 0 min 0 W/m 25,1 km/h (4 Bft) 97,83 %
15.11.2016 00:48 3,8 C 3,9 C 2,8 C 96 % 2 lf 1027,0 hPa 0,0 l/m 0 min 0 min 0 W/m 20,9 km/h (4 Bft) 93,62 %
15.11.2016 00:50 3,9 C 3,9 C 2,8 C 96 % 1 lf 1027,0 hPa 0,0 l/m 0 min 0 min 0 W/m 23,0 km/h (4 Bft) 93,62 %
15.11.2016 00:52 3,9 C 3,9 C 2,8 C 96 % 1 lf 1027,0 hPa 0,0 l/m 0 min 2 min 0 W/m 18,8 km/h (3 Bft) 97,87 %
15.11.2016 00:54 3,9 C 3,9 C 2,8 C 96 % 0 lf 1026,9 hPa 0,0 l/m 0 min 2 min 0 W/m 18,8 km/h (3 Bft) 95,74 %
15.11.2016 00:56 3,9 C 3,9 C 2,8 C 96 % 0 lf 1026,9 hPa 0,0 l/m 0 min 0 min 0 W/m 16,7 km/h (3 Bft) 97,87 %
15.11.2016 00:58 3,9 C 3,9 C 2,8 C 96 % 0 lf 1026,9 hPa 0,0 l/m 0 min 0 min 0 W/m 16,7 km/h (3 Bft) 97,83 %
15.11.2016 01:00 3,9 C 3,9 C 2,8 C 96 % 0 lf 1026,9 hPa 0,0 l/m 0 min 0 min 0 W/m 14,6 km/h (3 Bft) 97,87 %
15.11.2016 01:02 3,9 C 3,9 C 2,8 C 96 % 0 lf 1026,9 hPa 0,0 l/m 0 min 0 min 0 W/m 18,8 km/h (3 Bft) 93,75 %
15.11.2016 01:04 3,9 C 3,9 C 2,8 C 96 % 0 lf 1026,8 hPa 0,0 l/m 0 min 0 min 0 W/m 16,7 km/h (3 Bft) 97,87 %
15.11.2016 01:06 3,9 C 3,9 C 2,8 C 96 % 0 lf 1026,8 hPa 0,0 l/m 0 min 2 min 0 W/m 16,7 km/h (3 Bft) 91,49 %
15.11.2016 01:08 3,9 C 3,9 C 2,8 C 96 % 0 lf 1026,8 hPa 0,0 l/m 0 min 0 min 0 W/m 16,7 km/h (3 Bft) 97,87 %
15.11.2016 01:10 3,9 C 3,9 C 2,8 C 96 % 0 lf 1026,7 hPa 0,0 l/m 0 min 0 min 0 W/m 14,6 km/h (3 Bft) 95,65 %
15.11.2016 01:12 3,9 C 3,9 C 2,8 C 96 % 0 lf 1026,7 hPa 0,0 l/m 0 min 0 min 0 W/m 14,6 km/h (3 Bft) 97,37 %
15.11.2016 01:14 3,9 C 3,9 C 2,8 C 96 % 0 lf 1026,7 hPa 0,0 l/m 0 min 0 min 0 W/m 23,0 km/h (4 Bft) 95,74 %
15.11.2016 01:16 4,0 C 3,9 C 2,8 C 96 % 0 lf 1026,7 hPa 0,0 l/m 0 min 0 min 0 W/m 14,6 km/h (3 Bft) 95,74 %
15.11.2016 01:18 4,0 C 3,9 C 2,8 C 96 % 1 lf 1026,6 hPa 0,0 l/m 0 min 0 min 0 W/m 18,8 km/h (3 Bft) 95,74 %
15.11.2016 01:20 4,0 C 3,9 C 2,8 C 96 % 0 lf 1026,6 hPa 0,0 l/m 0 min 2 min 0 W/m 20,9 km/h (4 Bft) 100,00 %
15.11.2016 01:22 4,0 C 3,9 C 2,8 C 96 % 0 lf 1026,6 hPa 0,0 l/m 0 min 0 min 0 W/m 18,8 km/h (3 Bft) 93,18 %
15.11.2016 01:24 4,0 C 3,9 C 2,8 C 96 % 0 lf 1026,6 hPa 0,0 l/m 0 min 2 min 0 W/m 20,9 km/h (4 Bft) 95,92 %
15.11.2016 01:26 4,1 C 3,9 C 2,8 C 96 % 1 lf 1026,5 hPa 0,0 l/m 0 min 2 min 0 W/m 16,7 km/h (3 Bft) 96,23 %
15.11.2016 01:28 4,1 C 3,9 C 2,8 C 96 % 0 lf 1026,5 hPa 0,0 l/m 0 min 0 min 0 W/m 18,8 km/h (3 Bft) 95,74 %
15.11.2016 01:30 4,1 C 3,9 C 2,8 C 96 % 0 lf 1026,5 hPa 0,0 l/m 0 min 0 min 0 W/m 20,9 km/h (4 Bft) 95,74 %
15.11.2016 01:32 4,1 C 3,9 C 2,8 C 96 % 0 lf 1026,5 hPa 0,0 l/m 0 min 0 min 0 W/m 16,7 km/h (3 Bft) 97,87 %
15.11.2016 01:34 4,1 C 3,9 C 2,8 C 96 % 0 lf 1026,4 hPa 0,0 l/m 0 min 0 min 0 W/m 16,7 km/h (3 Bft) 93,48 %
15.11.2016 01:36 4,1 C 3,9 C 2,8 C 96 % 0 lf 1026,3 hPa 0,0 l/m 0 min 0 min 0 W/m 14,6 km/h (3 Bft) 93,62 %
15.11.2016 01:38 4,1 C 3,9 C 2,8 C 96 % 2 lf 1026,4 hPa 0,0 l/m 0 min 0 min 0 W/m 18,8 km/h (3 Bft) 95,74 %
15.11.2016 01:40 4,1 C 3,9 C 2,8 C 96 % 3 lf 1026,4 hPa 0,0 l/m 0 min 0 min 0 W/m 12,6 km/h (3 Bft) 95,74 %
15.11.2016 01:42 4,1 C 3,9 C 2,8 C 96 % 3 lf 1026,3 hPa 0,0 l/m 0 min 0 min 0 W/m 18,8 km/h (3 Bft) 93,62 %
15.11.2016 01:44 4,1 C 3,9 C 2,8 C 96 % 4 lf 1026,3 hPa 0,0 l/m 0 min 0 min 0 W/m 16,7 km/h (3 Bft) 93,48 %
15.11.2016 01:46 4,2 C 3,9 C 2,8 C 96 % 8 lf 1026,3 hPa 0,0 l/m 0 min 0 min 0 W/m 14,6 km/h (3 Bft) 95,74 %
15.11.2016 01:48 4,2 C 3,9 C 2,8 C 96 % 9 lf 1026,3 hPa 0,0 l/m 0 min 0 min 0 W/m 12,6 km/h (3 Bft) 95,74 %
15.11.2016 01:50 4,2 C 3,9 C 2,8 C 96 % 10 lf 1026,3 hPa 0,0 l/m 0 min 0 min 0 W/m 14,6 km/h (3 Bft) 93,62 %
15.11.2016 01:52 4,2 C 3,9 C 2,8 C 96 % 12 lf 1026,3 hPa 0,0 l/m 0 min 0 min 0 W/m 20,9 km/h (4 Bft) 93,62 %
15.11.2016 01:54 4,2 C 3,9 C 2,8 C 96 % 12 lf 1026,3 hPa 0,0 l/m 0 min 2 min 0 W/m 14,6 km/h (3 Bft) 95,74 %
15.11.2016 01:56 4,2 C 3,9 C 2,8 C 96 % 12 lf 1026,2 hPa 0,0 l/m 0 min 2 min 0 W/m 16,7 km/h (3 Bft) 95,65 %
15.11.2016 01:58 4,2 C 3,9 C 2,8 C 96 % 12 lf 1026,2 hPa 0,0 l/m 0 min 2 min 0 W/m 14,6 km/h (3 Bft) 95,74 %
15.11.2016 02:00 4,2 C 3,9 C 2,8 C 96 % 12 lf 1026,2 hPa 0,0 l/m 0 min 0 min 0 W/m 14,6 km/h (3 Bft) 93,62 %
15.11.2016 02:02 4,2 C 3,9 C 2,8 C 96 % 12 lf 1026,2 hPa 0,0 l/m 0 min 0 min 0 W/m 14,6 km/h (3 Bft) 97,92 %
15.11.2016 02:04 4,2 C 3,9 C 2,8 C 96 % 12 lf 1026,2 hPa 0,0 l/m 0 min 0 min 0 W/m 14,6 km/h (3 Bft) 97,87 %
15.11.2016 02:06 4,2 C 3,9 C 2,8 C 96 % 12 lf 1026,1 hPa 0,0 l/m 0 min 0 min 0 W/m 12,6 km/h (3 Bft) 94,74 %
15.11.2016 02:08 4,2 C 3,9 C 2,8 C 96 % 12 lf 1026,2 hPa 0,0 l/m 0 min 2 min 0 W/m 10,5 km/h (2 Bft) 97,87 %
15.11.2016 02:10 4,2 C 3,9 C 2,8 C 96 % 12 lf 1026,2 hPa 0,0 l/m 0 min 2 min 0 W/m 14,6 km/h (3 Bft) 97,83 %
15.11.2016 02:12 4,2 C 3,9 C 2,8 C 96 % 11 lf 1026,1 hPa 0,0 l/m 0 min 0 min 0 W/m 14,6 km/h (3 Bft) 97,87 %
15.11.2016 02:14 4,2 C 3,9 C 2,8 C 96 % 11 lf 1026,1 hPa 0,0 l/m 0 min 0 min 0 W/m 14,6 km/h (3 Bft) 100,00 %
15.11.2016 02:16 4,2 C 3,9 C 2,8 C 96 % 11 lf 1026,1 hPa 0,0 l/m 0 min 0 min 0 W/m 14,6 km/h (3 Bft) 95,74 %
15.11.2016 02:18 4,2 C 3,9 C 2,8 C 96 % 11 lf 1026,1 hPa 0,0 l/m 0 min 0 min 0 W/m 12,6 km/h (3 Bft) 95,74 %
15.11.2016 02:20 4,2 C 3,9 C 2,8 C 96 % 11 lf 1026,0 hPa 0,0 l/m 0 min 0 min 0 W/m 16,7 km/h (3 Bft) 97,87 %
15.11.2016 02:22 4,2 C 3,9 C 2,8 C 96 % 10 lf 1026,1 hPa 0,0 l/m 0 min 0 min 0 W/m 16,7 km/h (3 Bft) 97,92 %
15.11.2016 02:24 4,2 C 3,9 C 2,8 C 96 % 10 lf 1026,1 hPa 0,0 l/m 0 min 0 min 0 W/m 12,6 km/h (3 Bft) 95,74 %
15.11.2016 02:26 4,2 C 3,9 C 2,8 C 96 % 10 lf 1026,1 hPa 0,0 l/m 0 min 0 min 0 W/m 10,5 km/h (2 Bft) 97,87 %
15.11.2016 02:28 4,2 C 3,9 C 2,8 C 96 % 9 lf 1026,1 hPa 0,0 l/m 0 min 0 min 0 W/m 10,5 km/h (2 Bft) 97,87 %
15.11.2016 02:30 4,2 C 3,9 C 2,8 C 96 % 9 lf 1026,0 hPa 0,0 l/m 0 min 0 min 0 W/m 12,6 km/h (3 Bft) 95,74 %
15.11.2016 02:32 4,2 C 3,9 C 2,8 C 96 % 9 lf 1026,0 hPa 0,0 l/m 0 min 0 min 0 W/m 12,6 km/h (3 Bft) 97,92 %
15.11.2016 02:34 4,2 C 3,9 C 2,8 C 96 % 8 lf 1026,0 hPa 0,0 l/m 0 min 0 min 0 W/m 18,8 km/h (3 Bft) 95,65 %
15.11.2016 02:36 4,2 C 3,9 C 2,8 C 96 % 8 lf 1026,0 hPa 0,0 l/m 0 min 0 min 0 W/m 12,6 km/h (3 Bft) 95,92 %
15.11.2016 02:38 4,2 C 3,9 C 2,8 C 97 % 7 lf 1025,9 hPa 0,0 l/m 0 min 0 min 0 W/m 12,6 km/h (3 Bft) 97,87 %
15.11.2016 02:40 4,2 C 3,9 C 2,8 C 97 % 6 lf 1026,0 hPa 0,0 l/m 0 min 0 min 0 W/m 12,6 km/h (3 Bft) 95,74 %
15.11.2016 02:42 4,2 C 3,9 C 2,8 C 97 % 6 lf 1026,0 hPa 0,0 l/m 0 min 0 min 0 W/m 12,6 km/h (3 Bft) 97,87 %
15.11.2016 02:44 4,2 C 3,9 C 2,8 C 97 % 5 lf 1026,0 hPa 0,0 l/m 0 min 0 min 0 W/m 10,5 km/h (2 Bft) 95,65 %
15.11.2016 02:46 4,2 C 3,9 C 2,8 C 97 % 4 lf 1026,0 hPa 0,0 l/m 0 min 0 min 0 W/m 18,8 km/h (3 Bft) 91,49 %
15.11.2016 02:48 4,2 C 3,9 C 2,8 C 97 % 4 lf 1025,9 hPa 0,0 l/m 0 min 0 min 0 W/m 8,4 km/h (2 Bft) 95,74 %
15.11.2016 02:50 4,2 C 3,9 C 2,8 C 97 % 4 lf 1026,0 hPa 0,0 l/m 0 min 0 min 0 W/m 12,6 km/h (3 Bft) 97,87 %
15.11.2016 02:52 4,2 C 3,9 C 2,8 C 97 % 4 lf 1026,0 hPa 0,0 l/m 0 min 0 min 0 W/m 10,5 km/h (2 Bft) 97,87 %
15.11.2016 02:54 4,2 C 4,4 C 2,8 C 97 % 3 lf 1026,0 hPa 0,0 l/m 0 min 0 min 0 W/m 10,5 km/h (2 Bft) 97,87 %
15.11.2016 02:56 4,2 C 4,4 C 2,8 C 97 % 3 lf 1026,0 hPa 0,0 l/m 0 min 0 min 0 W/m 12,6 km/h (3 Bft) 95,65 %
15.11.2016 02:58 4,2 C 3,9 C 2,8 C 97 % 3 lf 1026,0 hPa 0,0 l/m 0 min 0 min 0 W/m 10,5 km/h (2 Bft) 97,87 %
15.11.2016 03:00 4,2 C 3,9 C 2,8 C 97 % 3 lf 1026,0 hPa 0,0 l/m 0 min 0 min 0 W/m 12,6 km/h (3 Bft) 93,62 %
15.11.2016 03:02 4,2 C 3,9 C 2,8 C 97 % 4 lf 1026,0 hPa 0,0 l/m 0 min 0 min 0 W/m 10,5 km/h (2 Bft) 98,00 %
15.11.2016 03:04 4,2 C 3,9 C 2,8 C 97 % 10 lf 1026,0 hPa 0,0 l/m 0 min 0 min 0 W/m 10,5 km/h (2 Bft) 95,74 %
15.11.2016 03:06 4,2 C 3,9 C 2,8 C 97 % 13 lf 1026,0 hPa 0,0 l/m 0 min 2 min 0 W/m 8,4 km/h (2 Bft) 94,74 %
15.11.2016 03:08 4,2 C 3,9 C 2,8 C 97 % 14 lf 1026,0 hPa 0,0 l/m 0 min 2 min 0 W/m 12,6 km/h (3 Bft) 93,62 %
15.11.2016 03:10 4,2 C 3,9 C 2,8 C 97 % 14 lf 1026,0 hPa 0,0 l/m 0 min 2 min 0 W/m 10,5 km/h (2 Bft) 97,83 %
15.11.2016 03:12 4,1 C 3,9 C 2,8 C 97 % 14 lf 1026,0 hPa 0,0 l/m 0 min 0 min 0 W/m 8,4 km/h (2 Bft) 93,62 %
15.11.2016 03:14 4,1 C 3,9 C 2,8 C 97 % 15 lf 1026,0 hPa 0,0 l/m 0 min 2 min 0 W/m 10,5 km/h (2 Bft) 97,87 %
15.11.2016 03:16 4,1 C 3,9 C 2,8 C 97 % 15 lf 1026,0 hPa 0,0 l/m 0 min 0 min 0 W/m 8,4 km/h (2 Bft) 95,74 %
15.11.2016 03:18 4,1 C 3,9 C 2,8 C 97 % 15 lf 1025,9 hPa 0,0 l/m 0 min 2 min 0 W/m 8,4 km/h (2 Bft) 91,49 %
15.11.2016 03:20 4,1 C 3,9 C 2,8 C 97 % 15 lf 1025,9 hPa 0,0 l/m 0 min 0 min 0 W/m 6,3 km/h (2 Bft) 95,74 %
15.11.2016 03:22 4,1 C 3,9 C 2,8 C 97 % 15 lf 1025,9 hPa 0,0 l/m 0 min 2 min 0 W/m 12,6 km/h (3 Bft) 95,65 %
15.11.2016 03:24 4,1 C 3,9 C 2,8 C 97 % 15 lf 1025,9 hPa 0,2 l/m 0 min 2 min 0 W/m 12,6 km/h (3 Bft) 93,62 %
15.11.2016 03:26 4,1 C 3,9 C 2,8 C 97 % 15 lf 1025,8 hPa 0,0 l/m 0 min 2 min 0 W/m 8,4 km/h (2 Bft) 93,62 %
15.11.2016 03:28 4,1 C 3,9 C 2,8 C 97 % 15 lf 1025,7 hPa 0,0 l/m 0 min 0 min 0 W/m 8,4 km/h (2 Bft) 95,74 %
15.11.2016 03:30 4,1 C 3,9 C 2,8 C 97 % 15 lf 1025,7 hPa 0,0 l/m 0 min 0 min 0 W/m 8,4 km/h (2 Bft) 89,36 %
15.11.2016 03:32 4,1 C 3,9 C 2,8 C 97 % 15 lf 1025,7 hPa 0,0 l/m 0 min 0 min 0 W/m 10,5 km/h (2 Bft) 91,30 %
15.11.2016 03:34 4,1 C 3,9 C 2,8 C 97 % 15 lf 1025,7 hPa 0,0 l/m 0 min 2 min 0 W/m 8,4 km/h (2 Bft) 93,62 %
15.11.2016 03:36 4,1 C 3,9 C 2,8 C 97 % 15 lf 1025,8 hPa 0,0 l/m 0 min 2 min 0 W/m 8,4 km/h (2 Bft) 96,23 %
15.11.2016 03:38 4,1 C 3,9 C 2,8 C 97 % 15 lf 1025,6 hPa 0,0 l/m 0 min 2 min 0 W/m 8,4 km/h (2 Bft) 93,62 %
15.11.2016 03:40 4,1 C 3,9 C 2,8 C 97 % 15 lf 1025,7 hPa 0,0 l/m 0 min 2 min 0 W/m 12,6 km/h (3 Bft) 95,74 %
15.11.2016 03:42 4,1 C 3,9 C 2,8 C 97 % 15 lf 1025,6 hPa 0,0 l/m 0 min 2 min 0 W/m 8,4 km/h (2 Bft) 91,30 %
15.11.2016 03:44 4,0 C 3,9 C 2,8 C 97 % 15 lf 1025,7 hPa 0,0 l/m 0 min 0 min 0 W/m 8,4 km/h (2 Bft) 95,74 %
15.11.2016 03:46 4,0 C 3,9 C 2,8 C 97 % 15 lf 1025,6 hPa 0,0 l/m 0 min 2 min 0 W/m 10,5 km/h (2 Bft) 95,12 %
15.11.2016 03:48 4,0 C 3,9 C 2,8 C 97 % 15 lf 1025,7 hPa 0,0 l/m 0 min 2 min 0 W/m 8,4 km/h (2 Bft) 93,62 %
15.11.2016 03:50 4,0 C 3,9 C 2,8 C 97 % 15 lf 1025,6 hPa 0,0 l/m 0 min 2 min 0 W/m 12,6 km/h (3 Bft) 98,11 %
15.11.2016 03:52 4,0 C 3,9 C 2,8 C 97 % 15 lf 1025,6 hPa 0,0 l/m 0 min 2 min 0 W/m 12,6 km/h (3 Bft) 95,74 %
15.11.2016 03:54 4,0 C 3,9 C 2,8 C 97 % 15 lf 1025,6 hPa 0,0 l/m 0 min 2 min 0 W/m 12,6 km/h (3 Bft) 95,65 %
15.11.2016 03:56 4,0 C 3,9 C 2,8 C 97 % 15 lf 1025,5 hPa 0,2 l/m 0 min 2 min 0 W/m 10,5 km/h (2 Bft) 95,74 %
15.11.2016 03:58 4,0 C 3,9 C 2,8 C 97 % 15 lf 1025,5 hPa 0,0 l/m 0 min 2 min 0 W/m 8,4 km/h (2 Bft) 95,74 %
15.11.2016 04:00 4,0 C 3,9 C 2,8 C 97 % 15 lf 1025,5 hPa 0,0 l/m 0 min 2 min 0 W/m 10,5 km/h (2 Bft) 97,87 %
15.11.2016 04:02 4,0 C 3,9 C 2,8 C 97 % 15 lf 1025,5 hPa 0,0 l/m 0 min 2 min 0 W/m 10,5 km/h (2 Bft) 90,91 %
15.11.2016 04:04 4,0 C 3,9 C 2,8 C 97 % 15 lf 1025,5 hPa 0,0 l/m 0 min 2 min 0 W/m 10,5 km/h (2 Bft) 95,74 %
15.11.2016 04:06 4,0 C 3,9 C 2,8 C 97 % 15 lf 1025,6 hPa 0,0 l/m 0 min 0 min 0 W/m 10,5 km/h (2 Bft) 95,65 %
15.11.2016 04:08 4,0 C 3,9 C 2,8 C 97 % 15 lf 1025,6 hPa 0,0 l/m 0 min 0 min 0 W/m 10,5 km/h (2 Bft) 95,74 %
15.11.2016 04:10 4,0 C 3,9 C 2,8 C 97 % 15 lf 1025,6 hPa 0,0 l/m 0 min 0 min 0 W/m 10,5 km/h (2 Bft) 95,74 %
15.11.2016 04:12 4,0 C 3,9 C 2,8 C 97 % 15 lf 1025,5 hPa 0,0 l/m 0 min 0 min 0 W/m 12,6 km/h (3 Bft) 93,75 %
15.11.2016 04:14 4,0 C 3,9 C 2,8 C 97 % 15 lf 1025,5 hPa 0,0 l/m 0 min 0 min 0 W/m 12,6 km/h (3 Bft) 93,62 %
15.11.2016 04:16 4,0 C 3,9 C 2,8 C 97 % 15 lf 1025,5 hPa 0,0 l/m 0 min 0 min 0 W/m 10,5 km/h (2 Bft) 97,83 %
15.11.2016 04:18 4,0 C 3,9 C 2,8 C 97 % 15 lf 1025,6 hPa 0,0 l/m 0 min 0 min 0 W/m 10,5 km/h (2 Bft) 97,87 %
15.11.2016 04:20 4,0 C 3,9 C 2,8 C 97 % 15 lf 1025,6 hPa 0,0 l/m 0 min 0 min 0 W/m 8,4 km/h (2 Bft) 93,62 %
15.11.2016 04:22 4,0 C 3,9 C 2,8 C 97 % 15 lf 1025,5 hPa 0,0 l/m 0 min 0 min 0 W/m 10,5 km/h (2 Bft) 95,74 %
15.11.2016 04:24 4,0 C 3,9 C 2,8 C 97 % 15 lf 1025,5 hPa 0,0 l/m 0 min 0 min 0 W/m 8,4 km/h (2 Bft) 97,87 %
15.11.2016 04:26 4,1 C 3,9 C 2,8 C 97 % 15 lf 1025,5 hPa 0,0 l/m 0 min 0 min 0 W/m 8,4 km/h (2 Bft) 95,74 %
15.11.2016 04:28 4,1 C 3,9 C 2,8 C 97 % 15 lf 1025,5 hPa 0,0 l/m 0 min 2 min 0 W/m 12,6 km/h (3 Bft) 97,83 %
15.11.2016 04:30 4,1 C 3,9 C 2,8 C 97 % 15 lf 1025,5 hPa 0,0 l/m 0 min 2 min 0 W/m 12,6 km/h (3 Bft) 91,49 %
15.11.2016 04:32 4,0 C 3,9 C 2,8 C 97 % 15 lf 1025,5 hPa 0,0 l/m 0 min 2 min 0 W/m 10,5 km/h (2 Bft) 97,87 %
15.11.2016 04:34 4,0 C 3,9 C 2,8 C 97 % 15 lf 1025,5 hPa 0,0 l/m 0 min 2 min 0 W/m 8,4 km/h (2 Bft) 95,74 %
15.11.2016 04:36 4,1 C 3,9 C 2,8 C 97 % 15 lf 1025,4 hPa 0,0 l/m 0 min 2 min 0 W/m 10,5 km/h (2 Bft) 97,87 %
15.11.2016 04:38 4,1 C 3,9 C 2,8 C 97 % 15 lf 1025,4 hPa 0,0 l/m 0 min 2 min 0 W/m 10,5 km/h (2 Bft) 93,62 %
15.11.2016 04:40 4,1 C 3,9 C 2,8 C 97 % 15 lf 1025,4 hPa 0,2 l/m 0 min 2 min 0 W/m 10,5 km/h (2 Bft) 97,83 %
15.11.2016 04:42 4,1 C 3,9 C 2,8 C 97 % 15 lf 1025,4 hPa 0,0 l/m 0 min 2 min 0 W/m 10,5 km/h (2 Bft) 97,87 %
15.11.2016 04:44 4,1 C 3,9 C 2,8 C 97 % 15 lf 1025,4 hPa 0,0 l/m 0 min 2 min 0 W/m 12,6 km/h (3 Bft) 89,36 %
15.11.2016 04:46 4,1 C 3,9 C 2,8 C 97 % 15 lf 1025,3 hPa 0,0 l/m 0 min 2 min 0 W/m 10,5 km/h (2 Bft) 97,87 %
15.11.2016 04:48 4,1 C 3,9 C 2,8 C 97 % 15 lf 1025,3 hPa 0,0 l/m 0 min 2 min 0 W/m 8,4 km/h (2 Bft) 100,00 %
15.11.2016 04:50 4,1 C 4,4 C 2,8 C 97 % 15 lf 1025,3 hPa 0,0 l/m 0 min 2 min 0 W/m 10,5 km/h (2 Bft) 97,87 %
15.11.2016 04:52 4,1 C 4,4 C 2,8 C 97 % 15 lf 1025,3 hPa 0,0 l/m 0 min 2 min 0 W/m 10,5 km/h (2 Bft) 97,83 %
15.11.2016 04:54 4,1 C 4,4 C 3,3 C 97 % 15 lf 1025,2 hPa 0,0 l/m 0 min 2 min 0 W/m 12,6 km/h (3 Bft) 97,87 %
15.11.2016 04:56 4,1 C 4,4 C 3,3 C 97 % 15 lf 1025,2 hPa 0,2 l/m 0 min 2 min 0 W/m 10,5 km/h (2 Bft) 100,00 %
15.11.2016 04:58 4,1 C 4,4 C 3,3 C 97 % 15 lf 1025,2 hPa 0,0 l/m 0 min 2 min 0 W/m 8,4 km/h (2 Bft) 97,87 %
15.11.2016 05:00 4,1 C 4,4 C 3,3 C 97 % 15 lf 1025,2 hPa 0,0 l/m 0 min 2 min 0 W/m 10,5 km/h (2 Bft) 97,87 %
15.11.2016 05:02 4,2 C 4,4 C 3,3 C 97 % 15 lf 1025,2 hPa 0,0 l/m 0 min 2 min 0 W/m 10,5 km/h (2 Bft) 97,87 %
15.11.2016 05:04 4,2 C 4,4 C 3,3 C 97 % 15 lf 1025,1 hPa 0,0 l/m 0 min 2 min 0 W/m 12,6 km/h (3 Bft) 97,87 %
15.11.2016 05:06 4,2 C 4,4 C 3,3 C 97 % 15 lf 1025,1 hPa 0,0 l/m 0 min 2 min 0 W/m 10,5 km/h (2 Bft) 94,44 %
15.11.2016 05:08 4,2 C 4,4 C 3,3 C 97 % 15 lf 1025,1 hPa 0,0 l/m 0 min 2 min 0 W/m 10,5 km/h (2 Bft) 95,74 %
15.11.2016 05:10 4,3 C 4,4 C 3,3 C 97 % 15 lf 1025,1 hPa 0,0 l/m 0 min 0 min 0 W/m 10,5 km/h (2 Bft) 97,87 %
15.11.2016 05:12 4,3 C 4,4 C 3,3 C 98 % 15 lf 1025,1 hPa 0,0 l/m 0 min 0 min 0 W/m 10,5 km/h (2 Bft) 97,87 %
15.11.2016 05:14 4,3 C 4,4 C 3,3 C 98 % 15 lf 1025,1 hPa 0,0 l/m 0 min 2 min 0 W/m 8,4 km/h (2 Bft) 97,87 %
15.11.2016 05:16 4,3 C 4,4 C 3,3 C 98 % 15 lf 1025,1 hPa 0,0 l/m 0 min 2 min 0 W/m 8,4 km/h (2 Bft) 97,87 %
15.11.2016 05:18 4,4 C 4,4 C 3,3 C 98 % 15 lf 1025,1 hPa 0,0 l/m 0 min 2 min 0 W/m 8,4 km/h (2 Bft) 95,65 %
15.11.2016 05:20 4,4 C 4,4 C 3,3 C 98 % 15 lf 1025,0 hPa 0,0 l/m 0 min 2 min 0 W/m 8,4 km/h (2 Bft) 97,87 %
15.11.2016 05:22 4,4 C 4,4 C 3,3 C 98 % 15 lf 1025,0 hPa 0,2 l/m 0 min 2 min 0 W/m 10,5 km/h (2 Bft) 100,00 %
15.11.2016 05:24 4,4 C 5,0 C 3,3 C 97 % 15 lf 1025,0 hPa 0,0 l/m 0 min 2 min 0 W/m 8,4 km/h (2 Bft) 97,87 %
15.11.2016 05:26 4,5 C 5,0 C 3,3 C 97 % 15 lf 1025,1 hPa 0,0 l/m 0 min 2 min 0 W/m 8,4 km/h (2 Bft) 95,74 %
15.11.2016 05:28 4,5 C 5,0 C 3,3 C 98 % 15 lf 1025,0 hPa 0,0 l/m 0 min 2 min 0 W/m 8,4 km/h (2 Bft) 97,87 %
15.11.2016 05:30 4,6 C 5,0 C 3,3 C 98 % 15 lf 1025,0 hPa 0,0 l/m 0 min 2 min 0 W/m 6,3 km/h (2 Bft) 95,65 %
15.11.2016 05:32 4,6 C 5,0 C 3,3 C 98 % 15 lf 1025,1 hPa 0,0 l/m 0 min 2 min 0 W/m 8,4 km/h (2 Bft) 97,87 %
15.11.2016 05:34 4,6 C 5,0 C 3,3 C 98 % 15 lf 1025,0 hPa 0,2 l/m 0 min 2 min 0 W/m 8,4 km/h (2 Bft) 95,74 %
15.11.2016 05:36 4,6 C 5,0 C 3,9 C 98 % 15 lf 1025,0 hPa 0,0 l/m 0 min 2 min 0 W/m 8,4 km/h (2 Bft) 98,25 %
15.11.2016 05:38 4,6 C 5,0 C 3,9 C 98 % 15 lf 1025,0 hPa 0,0 l/m 0 min 2 min 0 W/m 8,4 km/h (2 Bft) 100,00 %
15.11.2016 05:40 4,7 C 5,0 C 3,9 C 98 % 15 lf 1024,9 hPa 0,0 l/m 0 min 2 min 0 W/m 8,4 km/h (2 Bft) 97,87 %
15.11.2016 05:42 4,7 C 5,0 C 3,9 C 98 % 15 lf 1024,9 hPa 0,0 l/m 0 min 2 min 0 W/m 10,5 km/h (2 Bft) 97,87 %
15.11.2016 05:44 4,7 C 5,0 C 3,9 C 98 % 15 lf 1024,9 hPa 0,0 l/m 0 min 0 min 0 W/m 8,4 km/h (2 Bft) 100,00 %
15.11.2016 05:46 4,7 C 5,0 C 3,9 C 98 % 15 lf 1024,9 hPa 0,0 l/m 0 min 0 min 0 W/m 8,4 km/h (2 Bft) 97,87 %
15.11.2016 05:48 4,7 C 5,0 C 3,9 C 98 % 15 lf 1024,9 hPa 0,0 l/m 0 min 0 min 0 W/m 12,6 km/h (3 Bft) 100,00 %
15.11.2016 05:50 4,8 C 5,0 C 3,9 C 98 % 15 lf 1024,9 hPa 0,0 l/m 0 min 2 min 0 W/m 10,5 km/h (2 Bft) 93,48 %
15.11.2016 05:52 4,8 C 5,0 C 3,9 C 98 % 15 lf 1024,8 hPa 0,0 l/m 0 min 2 min 0 W/m 8,4 km/h (2 Bft) 100,00 %
15.11.2016 05:54 4,8 C 5,0 C 3,9 C 98 % 15 lf 1024,8 hPa 0,0 l/m 0 min 2 min 0 W/m 8,4 km/h (2 Bft) 97,87 %
15.11.2016 05:56 4,8 C 5,0 C 3,9 C 98 % 15 lf 1024,8 hPa 0,0 l/m 0 min 2 min 0 W/m 8,4 km/h (2 Bft) 100,00 %
15.11.2016 05:58 4,8 C 5,0 C 3,9 C 98 % 15 lf 1024,8 hPa 0,0 l/m 0 min 2 min 0 W/m 8,4 km/h (2 Bft) 100,00 %
15.11.2016 06:00 4,8 C 5,0 C 3,9 C 98 % 15 lf 1024,7 hPa 0,0 l/m 0 min 2 min 0 W/m 10,5 km/h (2 Bft) 100,00 %
15.11.2016 06:02 4,8 C 5,0 C 3,9 C 98 % 15 lf 1024,7 hPa 0,2 l/m 0 min 2 min 0 W/m 8,4 km/h (2 Bft) 93,62 %
15.11.2016 06:06 4,9 C 5,0 C 3,9 C 98 % 15 lf 1024,8 hPa 0,0 l/m 0 min 2 min 0 W/m 10,5 km/h (2 Bft) 96,74 %
15.11.2016 06:08 4,9 C 5,0 C 3,9 C 98 % 15 lf 1024,7 hPa 0,0 l/m 0 min 2 min 0 W/m 8,4 km/h (2 Bft) 97,87 %
15.11.2016 06:10 4,9 C 5,0 C 3,9 C 98 % 15 lf 1024,7 hPa 0,0 l/m 0 min 2 min 0 W/m 6,3 km/h (2 Bft) 91,49 %
15.11.2016 06:12 4,9 C 5,0 C 3,9 C 98 % 15 lf 1024,7 hPa 0,0 l/m 0 min 2 min 0 W/m 8,4 km/h (2 Bft) 97,87 %
15.11.2016 06:14 4,9 C 5,0 C 3,9 C 98 % 15 lf 1024,7 hPa 0,0 l/m 0 min 2 min 0 W/m 10,5 km/h (2 Bft) 97,83 %
15.11.2016 06:16 4,9 C 5,0 C 3,9 C 98 % 15 lf 1024,7 hPa 0,0 l/m 0 min 2 min 0 W/m 8,4 km/h (2 Bft) 97,87 %
15.11.2016 06:18 4,9 C 5,6 C 3,9 C 98 % 15 lf 1024,7 hPa 0,0 l/m 0 min 2 min 0 W/m 16,7 km/h (3 Bft) 100,00 %
15.11.2016 06:20 5,1 C 5,6 C 4,4 C 98 % 15 lf 1024,7 hPa 0,2 l/m 0 min 2 min 0 W/m 18,8 km/h (3 Bft) 100,00 %
15.11.2016 06:22 5,2 C 6,1 C 4,4 C 98 % 15 lf 1024,6 hPa 0,0 l/m 0 min 2 min 0 W/m 16,7 km/h (3 Bft) 95,74 %
15.11.2016 06:24 5,3 C 6,1 C 4,4 C 98 % 15 lf 1024,6 hPa 0,0 l/m 0 min 0 min 0 W/m 20,9 km/h (4 Bft) 97,87 %
15.11.2016 06:26 5,5 C 6,1 C 5,0 C 98 % 15 lf 1024,7 hPa 0,0 l/m 0 min 2 min 0 W/m 14,6 km/h (3 Bft) 95,65 %
15.11.2016 06:28 5,6 C 6,1 C 5,0 C 98 % 15 lf 1024,6 hPa 0,0 l/m 0 min 2 min 0 W/m 12,6 km/h (3 Bft) 97,87 %
15.11.2016 06:30 5,7 C 6,1 C 4,4 C 98 % 15 lf 1024,6 hPa 0,0 l/m 0 min 2 min 0 W/m 12,6 km/h (3 Bft) 95,74 %
15.11.2016 06:32 5,7 C 6,1 C 5,0 C 98 % 15 lf 1024,6 hPa 0,0 l/m 0 min 2 min 0 W/m 14,6 km/h (3 Bft) 89,36 %
15.11.2016 06:34 5,7 C 6,1 C 5,0 C 98 % 15 lf 1024,6 hPa 0,0 l/m 0 min 2 min 0 W/m 12,6 km/h (3 Bft) 95,74 %
15.11.2016 06:36 5,8 C 6,1 C 5,0 C 98 % 15 lf 1024,6 hPa 0,0 l/m 0 min 0 min 0 W/m 14,6 km/h (3 Bft) 94,74 %
15.11.2016 06:38 5,8 C 6,1 C 5,0 C 98 % 15 lf 1024,6 hPa 0,0 l/m 0 min 0 min 0 W/m 14,6 km/h (3 Bft) 95,74 %
15.11.2016 06:40 5,9 C 6,1 C 5,0 C 98 % 15 lf 1024,6 hPa 0,0 l/m 0 min 0 min 0 W/m 14,6 km/h (3 Bft) 91,30 %
15.11.2016 06:42 5,9 C 6,1 C 5,0 C 98 % 15 lf 1024,6 hPa 0,0 l/m 0 min 0 min 0 W/m 14,6 km/h (3 Bft) 91,49 %
15.11.2016 06:44 5,9 C 6,1 C 5,0 C 98 % 15 lf 1024,6 hPa 0,0 l/m 0 min 0 min 0 W/m 12,6 km/h (3 Bft) 93,62 %
15.11.2016 06:46 6,0 C 6,1 C 5,0 C 98 % 15 lf 1024,6 hPa 0,0 l/m 0 min 0 min 0 W/m 14,6 km/h (3 Bft) 91,49 %
15.11.2016 06:48 6,0 C 6,1 C 5,0 C 98 % 15 lf 1024,6 hPa 0,0 l/m 0 min 2 min 0 W/m 14,6 km/h (3 Bft) 93,62 %
15.11.2016 06:50 6,1 C 6,1 C 5,0 C 98 % 15 lf 1024,6 hPa 0,0 l/m 0 min 0 min 0 W/m 16,7 km/h (3 Bft) 91,49 %
15.11.2016 06:52 6,1 C 6,1 C 5,0 C 98 % 15 lf 1024,6 hPa 0,0 l/m 0 min 2 min 0 W/m 23,0 km/h (4 Bft) 91,30 %
15.11.2016 06:54 6,1 C 6,1 C 5,0 C 98 % 15 lf 1024,5 hPa 0,0 l/m 0 min 2 min 0 W/m 18,8 km/h (3 Bft) 93,62 %
15.11.2016 06:56 6,1 C 6,1 C 5,0 C 98 % 15 lf 1024,6 hPa 0,2 l/m 0 min 2 min 0 W/m 12,6 km/h (3 Bft) 93,62 %
15.11.2016 06:58 6,2 C 6,1 C 5,0 C 98 % 15 lf 1024,5 hPa 0,0 l/m 0 min 2 min 0 W/m 20,9 km/h (4 Bft) 87,23 %
15.11.2016 07:00 6,2 C 6,1 C 5,0 C 98 % 15 lf 1024,5 hPa 0,0 l/m 0 min 0 min 0 W/m 16,7 km/h (3 Bft) 89,36 %
15.11.2016 07:02 6,2 C 6,1 C 5,0 C 98 % 15 lf 1024,5 hPa 0,0 l/m 0 min 2 min 0 W/m 16,7 km/h (3 Bft) 88,00 %
15.11.2016 07:04 6,2 C 6,1 C 5,0 C 98 % 15 lf 1024,6 hPa 0,0 l/m 0 min 0 min 0 W/m 18,8 km/h (3 Bft) 91,49 %
15.11.2016 07:06 6,2 C 6,1 C 5,0 C 98 % 15 lf 1024,5 hPa 0,0 l/m 0 min 2 min 0 W/m 18,8 km/h (3 Bft) 88,00 %
15.11.2016 07:08 6,2 C 6,1 C 5,0 C 98 % 15 lf 1024,5 hPa 0,0 l/m 0 min 2 min 0 W/m 16,7 km/h (3 Bft) 89,36 %
15.11.2016 07:10 6,2 C 6,1 C 5,0 C 98 % 15 lf 1024,5 hPa 0,0 l/m 0 min 2 min 0 W/m 16,7 km/h (3 Bft) 91,49 %
15.11.2016 07:12 6,2 C 6,1 C 5,0 C 98 % 15 lf 1024,5 hPa 0,0 l/m 0 min 2 min 0 W/m 12,6 km/h (3 Bft) 91,30 %
15.11.2016 07:14 6,2 C 6,1 C 5,0 C 98 % 15 lf 1024,4 hPa 0,0 l/m 0 min 2 min 0 W/m 12,6 km/h (3 Bft) 93,62 %
15.11.2016 07:16 6,2 C 6,1 C 5,0 C 98 % 15 lf 1024,5 hPa 0,2 l/m 0 min 2 min 0 W/m 12,6 km/h (3 Bft) 93,62 %
15.11.2016 07:18 6,2 C 6,1 C 5,0 C 98 % 15 lf 1024,4 hPa 0,0 l/m 0 min 2 min 0 W/m 12,6 km/h (3 Bft) 91,49 %
15.11.2016 07:20 6,3 C 6,1 C 5,0 C 98 % 15 lf 1024,4 hPa 0,0 l/m 0 min 2 min 0 W/m 12,6 km/h (3 Bft) 91,49 %
15.11.2016 07:22 6,3 C 6,1 C 5,0 C 98 % 15 lf 1024,4 hPa 0,0 l/m 0 min 2 min 0 W/m 14,6 km/h (3 Bft) 91,49 %
15.11.2016 07:24 6,3 C 6,1 C 5,0 C 98 % 15 lf 1024,4 hPa 0,2 l/m 0 min 2 min 0 W/m 14,6 km/h (3 Bft) 91,30 %
15.11.2016 07:26 6,3 C 6,1 C 5,0 C 98 % 15 lf 1024,4 hPa 0,0 l/m 0 min 2 min 0 W/m 12,6 km/h (3 Bft) 93,62 %
15.11.2016 07:28 6,3 C 6,7 C 5,0 C 98 % 15 lf 1024,4 hPa 0,0 l/m 0 min 2 min 0 W/m 18,8 km/h (3 Bft) 95,74 %
15.11.2016 07:30 6,3 C 6,7 C 5,0 C 98 % 15 lf 1024,3 hPa 0,0 l/m 0 min 2 min 0 W/m 20,9 km/h (4 Bft) 95,74 %
15.11.2016 07:32 6,3 C 6,7 C 5,0 C 98 % 15 lf 1024,4 hPa 0,0 l/m 0 min 2 min 0 W/m 14,6 km/h (3 Bft) 97,96 %
15.11.2016 07:34 6,3 C 6,7 C 5,0 C 98 % 15 lf 1024,4 hPa 0,0 l/m 0 min 2 min 0 W/m 18,8 km/h (3 Bft) 97,87 %
15.11.2016 07:36 6,3 C 6,7 C 5,0 C 98 % 15 lf 1024,3 hPa 0,2 l/m 0 min 2 min 0 W/m 14,6 km/h (3 Bft) 97,87 %
15.11.2016 07:38 6,4 C 6,7 C 5,0 C 99 % 15 lf 1024,4 hPa 0,0 l/m 0 min 2 min 0 W/m 16,7 km/h (3 Bft) 100,00 %
15.11.2016 07:40 6,4 C 6,7 C 5,0 C 99 % 15 lf 1024,4 hPa 0,0 l/m 0 min 2 min 0 W/m 14,6 km/h (3 Bft) 100,00 %
15.11.2016 07:42 6,4 C 6,7 C 5,0 C 99 % 15 lf 1024,3 hPa 0,0 l/m 0 min 2 min 0 W/m 14,6 km/h (3 Bft) 97,14 %
15.11.2016 07:44 6,4 C 6,7 C 5,0 C 99 % 15 lf 1024,3 hPa 0,0 l/m 0 min 2 min 0 W/m 18,8 km/h (3 Bft) 100,00 %
15.11.2016 07:46 6,4 C 6,7 C 5,0 C 99 % 15 lf 1024,3 hPa 0,2 l/m 0 min 2 min 0 W/m 14,6 km/h (3 Bft) 100,00 %
15.11.2016 07:48 6,4 C 6,7 C 5,0 C 99 % 15 lf 1024,3 hPa 0,0 l/m 0 min 2 min 0 W/m 14,6 km/h (3 Bft) 100,00 %
15.11.2016 07:50 6,4 C 6,7 C 5,0 C 99 % 15 lf 1024,2 hPa 0,0 l/m 0 min 2 min 0 W/m 14,6 km/h (3 Bft) 100,00 %
15.11.2016 07:52 6,4 C 6,7 C 5,0 C 99 % 15 lf 1024,3 hPa 0,2 l/m 0 min 2 min 0 W/m 14,6 km/h (3 Bft) 89,36 %
15.11.2016 07:54 6,4 C 6,7 C 5,0 C 98 % 15 lf 1024,2 hPa 0,0 l/m 0 min 2 min 0 W/m 14,6 km/h (3 Bft) 100,00 %
15.11.2016 07:56 6,4 C 6,7 C 5,0 C 98 % 15 lf 1024,2 hPa 0,0 l/m 0 min 2 min 0 W/m 16,7 km/h (3 Bft) 93,62 %
15.11.2016 07:58 6,4 C 6,7 C 5,0 C 98 % 15 lf 1024,2 hPa 0,0 l/m 0 min 0 min 0 W/m 14,6 km/h (3 Bft) 97,87 %
15.11.2016 08:00 6,5 C 6,7 C 5,0 C 98 % 15 lf 1024,2 hPa 0,0 l/m 0 min 0 min 0 W/m 14,6 km/h (3 Bft) 91,49 %
15.11.2016 08:02 6,5 C 6,7 C 5,0 C 98 % 15 lf 1024,3 hPa 0,0 l/m 0 min 0 min 0 W/m 12,6 km/h (3 Bft) 100,00 %
15.11.2016 08:04 6,5 C 6,7 C 5,6 C 98 % 15 lf 1024,3 hPa 0,0 l/m 0 min 0 min 0 W/m 8,4 km/h (2 Bft) 100,00 %
15.11.2016 08:06 6,5 C 6,7 C 5,6 C 98 % 15 lf 1024,3 hPa 0,0 l/m 0 min 0 min 0 W/m 12,6 km/h (3 Bft) 100,00 %
15.11.2016 08:08 6,6 C 6,7 C 5,6 C 98 % 15 lf 1024,4 hPa 0,0 l/m 0 min 0 min 0 W/m 14,6 km/h (3 Bft) 93,62 %
15.11.2016 08:10 6,6 C 6,7 C 5,6 C 98 % 15 lf 1024,4 hPa 0,0 l/m 0 min 2 min 4 W/m 12,6 km/h (3 Bft) 100,00 %
15.11.2016 08:12 6,6 C 6,7 C 5,6 C 98 % 15 lf 1024,4 hPa 0,0 l/m 0 min 2 min 5 W/m 12,6 km/h (3 Bft) 97,87 %
15.11.2016 08:14 6,6 C 6,7 C 5,6 C 98 % 15 lf 1024,5 hPa 0,0 l/m 0 min 2 min 5 W/m 23,0 km/h (4 Bft) 100,00 %
15.11.2016 08:16 6,6 C 6,7 C 5,6 C 98 % 15 lf 1024,5 hPa 0,2 l/m 0 min 2 min 5 W/m 14,6 km/h (3 Bft) 97,87 %
15.11.2016 08:18 6,6 C 6,7 C 5,6 C 98 % 15 lf 1024,4 hPa 0,0 l/m 0 min 2 min 5 W/m 8,4 km/h (2 Bft) 100,00 %
15.11.2016 08:20 6,6 C 6,7 C 5,6 C 99 % 15 lf 1024,4 hPa 0,0 l/m 0 min 2 min 5 W/m 20,9 km/h (4 Bft) 95,74 %
15.11.2016 08:22 6,6 C 6,7 C 5,6 C 99 % 15 lf 1024,4 hPa 0,2 l/m 0 min 2 min 5 W/m 18,8 km/h (3 Bft) 100,00 %
15.11.2016 08:24 6,6 C 6,7 C 5,6 C 99 % 15 lf 1024,4 hPa 0,0 l/m 0 min 2 min 5 W/m 16,7 km/h (3 Bft) 100,00 %
15.11.2016 08:26 6,6 C 6,7 C 5,6 C 99 % 15 lf 1024,4 hPa 0,0 l/m 0 min 2 min 5 W/m 14,6 km/h (3 Bft) 100,00 %
15.11.2016 08:28 6,7 C 6,7 C 5,6 C 99 % 15 lf 1024,4 hPa 0,0 l/m 0 min 2 min 5 W/m 12,6 km/h (3 Bft) 97,87 %
15.11.2016 08:30 6,7 C 6,7 C 5,6 C 99 % 15 lf 1024,4 hPa 0,0 l/m 0 min 2 min 5 W/m 14,6 km/h (3 Bft) 100,00 %
15.11.2016 08:32 6,7 C 6,7 C 5,6 C 99 % 15 lf 1024,4 hPa 0,0 l/m 0 min 2 min 7 W/m 10,5 km/h (2 Bft) 100,00 %
15.11.2016 08:34 6,7 C 6,7 C 5,6 C 99 % 15 lf 1024,4 hPa 0,2 l/m 0 min 2 min 7 W/m 14,6 km/h (3 Bft) 100,00 %
15.11.2016 08:36 6,7 C 6,7 C 5,6 C 99 % 15 lf 1024,4 hPa 0,0 l/m 0 min 2 min 7 W/m 14,6 km/h (3 Bft) 100,00 %
15.11.2016 08:38 6,7 C 6,7 C 5,6 C 99 % 15 lf 1024,3 hPa 0,0 l/m 0 min 2 min 7 W/m 12,6 km/h (3 Bft) 95,65 %
15.11.2016 08:40 6,7 C 6,7 C 5,6 C 99 % 15 lf 1024,3 hPa 0,0 l/m 0 min 2 min 7 W/m 12,6 km/h (3 Bft) 100,00 %
15.11.2016 08:42 6,7 C 6,7 C 5,6 C 99 % 15 lf 1024,3 hPa 0,0 l/m 0 min 2 min 7 W/m 12,6 km/h (3 Bft) 91,49 %
15.11.2016 08:44 6,8 C 6,7 C 5,6 C 99 % 15 lf 1024,4 hPa 0,2 l/m 0 min 2 min 5 W/m 12,6 km/h (3 Bft) 100,00 %
15.11.2016 08:46 6,8 C 6,7 C 5,6 C 99 % 15 lf 1024,5 hPa 0,0 l/m 0 min 2 min 5 W/m 16,7 km/h (3 Bft) 100,00 %
15.11.2016 08:48 6,8 C 6,7 C 5,6 C 99 % 15 lf 1024,4 hPa 0,0 l/m 0 min 0 min 5 W/m 18,8 km/h (3 Bft) 95,65 %
15.11.2016 08:50 6,8 C 6,7 C 5,6 C 99 % 15 lf 1024,4 hPa 0,0 l/m 0 min 0 min 6 W/m 10,5 km/h (2 Bft) 93,62 %
15.11.2016 08:52 6,8 C 6,7 C 5,6 C 99 % 15 lf 1024,4 hPa 0,0 l/m 0 min 0 min 7 W/m 16,7 km/h (3 Bft) 95,74 %
15.11.2016 08:54 6,8 C 6,7 C 5,6 C 99 % 15 lf 1024,4 hPa 0,0 l/m 0 min 0 min 7 W/m 14,6 km/h (3 Bft) 97,87 %
15.11.2016 08:56 6,8 C 7,2 C 5,6 C 99 % 15 lf 1024,5 hPa 0,0 l/m 0 min 0 min 7 W/m 18,8 km/h (3 Bft) 97,87 %
15.11.2016 08:58 6,9 C 7,2 C 5,6 C 99 % 15 lf 1024,6 hPa 0,0 l/m 0 min 0 min 7 W/m 12,6 km/h (3 Bft) 97,87 %
15.11.2016 09:00 6,9 C 7,2 C 5,6 C 99 % 15 lf 1024,5 hPa 0,0 l/m 0 min 0 min 8 W/m 16,7 km/h (3 Bft) 95,65 %
15.11.2016 09:02 6,9 C 7,2 C 5,6 C 99 % 15 lf 1024,6 hPa 0,0 l/m 0 min 0 min 9 W/m 18,8 km/h (3 Bft) 97,87 %
15.11.2016 09:04 6,9 C 7,2 C 5,6 C 99 % 15 lf 1024,7 hPa 0,0 l/m 0 min 0 min 10 W/m 12,6 km/h (3 Bft) 97,87 %
15.11.2016 09:06 6,9 C 7,2 C 5,6 C 99 % 15 lf 1024,6 hPa 0,0 l/m 0 min 0 min 11 W/m 18,8 km/h (3 Bft) 94,55 %
15.11.2016 09:08 6,9 C 7,2 C 5,6 C 99 % 15 lf 1024,6 hPa 0,0 l/m 0 min 0 min 12 W/m 10,5 km/h (2 Bft) 95,74 %
15.11.2016 09:10 6,9 C 7,2 C 5,6 C 99 % 15 lf 1024,6 hPa 0,0 l/m 0 min 0 min 12 W/m 12,6 km/h (3 Bft) 95,65 %
15.11.2016 09:12 6,9 C 7,2 C 5,6 C 99 % 15 lf 1024,6 hPa 0,0 l/m 0 min 0 min 14 W/m 14,6 km/h (3 Bft) 97,87 %
15.11.2016 09:14 6,9 C 7,2 C 5,6 C 99 % 15 lf 1024,4 hPa 0,0 l/m 0 min 0 min 15 W/m 16,7 km/h (3 Bft) 100,00 %
15.11.2016 09:16 6,9 C 7,2 C 5,6 C 99 % 15 lf 1024,4 hPa 0,0 l/m 0 min 0 min 17 W/m 16,7 km/h (3 Bft) 93,62 %
15.11.2016 09:18 6,9 C 7,2 C 5,6 C 99 % 15 lf 1024,3 hPa 0,0 l/m 0 min 0 min 18 W/m 12,6 km/h (3 Bft) 91,49 %
15.11.2016 09:20 6,9 C 7,2 C 5,6 C 99 % 15 lf 1024,3 hPa 0,0 l/m 0 min 0 min 20 W/m 16,7 km/h (3 Bft) 95,74 %
15.11.2016 09:22 7,0 C 7,2 C 6,1 C 99 % 15 lf 1024,3 hPa 0,0 l/m 0 min 0 min 19 W/m 14,6 km/h (3 Bft) 97,83 %
15.11.2016 09:24 7,0 C 7,2 C 6,1 C 99 % 15 lf 1024,3 hPa 0,0 l/m 0 min 0 min 20 W/m 16,7 km/h (3 Bft) 97,87 %
15.11.2016 09:26 7,0 C 7,2 C 6,1 C 99 % 15 lf 1024,3 hPa 0,0 l/m 0 min 0 min 21 W/m 16,7 km/h (3 Bft) 95,74 %
15.11.2016 09:28 7,0 C 7,2 C 6,1 C 99 % 15 lf 1024,4 hPa 0,0 l/m 0 min 0 min 21 W/m 20,9 km/h (4 Bft) 95,74 %
15.11.2016 09:30 7,1 C 7,2 C 6,1 C 99 % 15 lf 1024,4 hPa 0,0 l/m 0 min 0 min 23 W/m 23,0 km/h (4 Bft) 95,74 %
15.11.2016 09:32 7,1 C 7,2 C 6,1 C 99 % 15 lf 1024,5 hPa 0,0 l/m 0 min 0 min 24 W/m 14,6 km/h (3 Bft) 91,49 %
15.11.2016 09:34 7,1 C 7,2 C 6,1 C 99 % 15 lf 1024,4 hPa 0,0 l/m 0 min 0 min 26 W/m 14,6 km/h (3 Bft) 93,62 %
15.11.2016 09:36 7,1 C 7,2 C 6,1 C 99 % 15 lf 1024,4 hPa 0,0 l/m 0 min 0 min 28 W/m 25,1 km/h (4 Bft) 97,37 %
15.11.2016 09:38 7,1 C 7,2 C 6,1 C 99 % 15 lf 1024,4 hPa 0,0 l/m 0 min 0 min 29 W/m 16,7 km/h (3 Bft) 95,74 %
15.11.2016 09:40 7,1 C 7,2 C 6,1 C 99 % 15 lf 1024,4 hPa 0,0 l/m 0 min 0 min 32 W/m 20,9 km/h (4 Bft) 93,62 %
15.11.2016 09:42 7,1 C 7,2 C 6,1 C 99 % 15 lf 1024,4 hPa 0,0 l/m 0 min 0 min 35 W/m 16,7 km/h (3 Bft) 96,23 %
15.11.2016 09:44 7,1 C 7,2 C 6,1 C 99 % 15 lf 1024,4 hPa 0,0 l/m 0 min 0 min 32 W/m 16,7 km/h (3 Bft) 93,62 %
15.11.2016 09:46 7,2 C 7,2 C 6,1 C 99 % 15 lf 1024,5 hPa 0,0 l/m 0 min 0 min 30 W/m 16,7 km/h (3 Bft) 95,00 %
15.11.2016 09:48 7,2 C 7,2 C 6,1 C 99 % 15 lf 1024,4 hPa 0,0 l/m 0 min 0 min 28 W/m 20,9 km/h (4 Bft) 91,49 %
15.11.2016 09:50 7,2 C 7,2 C 6,1 C 99 % 15 lf 1024,4 hPa 0,0 l/m 0 min 0 min 25 W/m 20,9 km/h (4 Bft) 92,45 %
15.11.2016 09:52 7,2 C 7,2 C 6,1 C 99 % 15 lf 1024,5 hPa 0,0 l/m 0 min 0 min 23 W/m 14,6 km/h (3 Bft) 93,62 %
15.11.2016 09:54 7,2 C 7,2 C 6,1 C 99 % 15 lf 1024,5 hPa 0,0 l/m 0 min 0 min 22 W/m 20,9 km/h (4 Bft) 95,74 %
15.11.2016 09:56 7,2 C 7,2 C 6,1 C 99 % 15 lf 1024,6 hPa 0,0 l/m 0 min 0 min 18 W/m 14,6 km/h (3 Bft) 95,65 %
15.11.2016 09:58 7,2 C 7,2 C 6,1 C 99 % 15 lf 1024,6 hPa 0,0 l/m 0 min 0 min 18 W/m 14,6 km/h (3 Bft) 90,24 %
15.11.2016 10:00 7,2 C 7,2 C 6,1 C 99 % 15 lf 1024,7 hPa 0,0 l/m 0 min 0 min 18 W/m 16,7 km/h (3 Bft) 95,74 %
15.11.2016 10:02 7,2 C 7,2 C 6,1 C 99 % 15 lf 1024,6 hPa 0,0 l/m 0 min 0 min 18 W/m 16,7 km/h (3 Bft) 94,44 %
15.11.2016 10:04 7,2 C 7,2 C 6,1 C 99 % 15 lf 1024,6 hPa 0,0 l/m 0 min 0 min 18 W/m 12,6 km/h (3 Bft) 95,74 %
15.11.2016 10:06 7,2 C 7,2 C 6,1 C 99 % 15 lf 1024,6 hPa 0,0 l/m 0 min 0 min 19 W/m 8,4 km/h (2 Bft) 87,50 %
15.11.2016 10:08 7,2 C 7,2 C 6,1 C 99 % 15 lf 1024,6 hPa 0,0 l/m 0 min 0 min 18 W/m 12,6 km/h (3 Bft) 95,74 %
15.11.2016 10:10 7,2 C 7,2 C 6,1 C 99 % 15 lf 1024,5 hPa 0,0 l/m 0 min 0 min 17 W/m 12,6 km/h (3 Bft) 95,65 %
15.11.2016 10:12 7,3 C 7,2 C 6,1 C 99 % 15 lf 1024,6 hPa 0,0 l/m 0 min 0 min 18 W/m 16,7 km/h (3 Bft) 100,00 %
15.11.2016 10:14 7,3 C 7,2 C 6,1 C 99 % 15 lf 1024,6 hPa 0,0 l/m 0 min 0 min 18 W/m 16,7 km/h (3 Bft) 100,00 %
15.11.2016 10:16 7,3 C 7,2 C 6,1 C 99 % 15 lf 1024,7 hPa 0,0 l/m 0 min 0 min 18 W/m 10,5 km/h (2 Bft) 97,87 %
15.11.2016 10:18 7,3 C 7,2 C 6,1 C 99 % 15 lf 1024,7 hPa 0,0 l/m 0 min 0 min 19 W/m 14,6 km/h (3 Bft) 100,00 %
15.11.2016 10:20 7,3 C 7,2 C 6,1 C 99 % 15 lf 1024,7 hPa 0,0 l/m 0 min 0 min 23 W/m 14,6 km/h (3 Bft) 97,87 %
15.11.2016 10:22 7,3 C 7,2 C 6,1 C 99 % 15 lf 1024,7 hPa 0,0 l/m 0 min 0 min 18 W/m 14,6 km/h (3 Bft) 97,87 %
15.11.2016 10:24 7,3 C 7,2 C 6,1 C 99 % 15 lf 1024,8 hPa 0,0 l/m 0 min 0 min 18 W/m 14,6 km/h (3 Bft) 97,83 %
15.11.2016 10:26 7,3 C 7,2 C 6,1 C 99 % 15 lf 1024,9 hPa 0,0 l/m 0 min 0 min 22 W/m 12,6 km/h (3 Bft) 95,74 %
15.11.2016 10:28 7,3 C 7,8 C 6,1 C 99 % 15 lf 1024,8 hPa 0,0 l/m 0 min 0 min 24 W/m 10,5 km/h (2 Bft) 93,62 %
15.11.2016 10:30 7,3 C 7,8 C 6,1 C 99 % 15 lf 1024,8 hPa 0,0 l/m 0 min 0 min 37 W/m 10,5 km/h (2 Bft) 95,74 %
15.11.2016 10:32 7,4 C 7,8 C 6,7 C 99 % 15 lf 1024,8 hPa 0,0 l/m 0 min 0 min 41 W/m 8,4 km/h (2 Bft) 97,87 %
15.11.2016 10:34 7,4 C 7,8 C 6,7 C 99 % 15 lf 1024,8 hPa 0,0 l/m 0 min 2 min 32 W/m 14,6 km/h (3 Bft) 95,65 %
15.11.2016 10:36 7,4 C 7,8 C 6,7 C 99 % 15 lf 1024,8 hPa 0,0 l/m 0 min 0 min 29 W/m 23,0 km/h (4 Bft) 97,87 %
15.11.2016 10:38 7,4 C 7,8 C 6,7 C 99 % 15 lf 1024,8 hPa 0,0 l/m 0 min 0 min 31 W/m 18,8 km/h (3 Bft) 97,87 %
15.11.2016 10:40 7,4 C 7,8 C 6,7 C 99 % 15 lf 1024,8 hPa 0,0 l/m 0 min 0 min 35 W/m 12,6 km/h (3 Bft) 95,74 %
15.11.2016 10:42 7,4 C 7,8 C 6,7 C 99 % 15 lf 1024,8 hPa 0,0 l/m 0 min 0 min 56 W/m 16,7 km/h (3 Bft) 93,62 %
15.11.2016 10:44 7,4 C 7,8 C 6,7 C 99 % 15 lf 1024,8 hPa 0,0 l/m 0 min 0 min 63 W/m 14,6 km/h (3 Bft) 93,62 %
15.11.2016 10:46 7,4 C 7,8 C 6,7 C 99 % 15 lf 1024,8 hPa 0,0 l/m 0 min 2 min 47 W/m 18,8 km/h (3 Bft) 95,65 %
15.11.2016 10:48 7,5 C 7,8 C 6,7 C 99 % 15 lf 1024,8 hPa 0,0 l/m 0 min 0 min 41 W/m 14,6 km/h (3 Bft) 93,62 %
15.11.2016 10:50 7,5 C 7,8 C 6,7 C 99 % 15 lf 1024,8 hPa 0,0 l/m 0 min 0 min 39 W/m 14,6 km/h (3 Bft) 95,74 %
15.11.2016 10:52 7,5 C 7,8 C 6,7 C 99 % 15 lf 1024,8 hPa 0,0 l/m 0 min 0 min 44 W/m 18,8 km/h (3 Bft) 93,62 %
15.11.2016 10:54 7,6 C 7,8 C 6,7 C 99 % 15 lf 1024,8 hPa 0,0 l/m 0 min 0 min 44 W/m 12,6 km/h (3 Bft) 95,74 %
15.11.2016 10:56 7,6 C 7,8 C 6,7 C 99 % 15 lf 1024,8 hPa 0,0 l/m 0 min 0 min 40 W/m 14,6 km/h (3 Bft) 91,49 %
15.11.2016 10:58 7,6 C 7,8 C 6,7 C 99 % 15 lf 1024,8 hPa 0,0 l/m 0 min 0 min 46 W/m 12,6 km/h (3 Bft) 93,48 %
15.11.2016 11:00 7,6 C 7,8 C 6,7 C 99 % 15 lf 1024,9 hPa 0,0 l/m 0 min 0 min 39 W/m 14,6 km/h (3 Bft) 95,74 %
15.11.2016 11:02 7,6 C 7,8 C 6,7 C 99 % 15 lf 1024,9 hPa 0,0 l/m 0 min 0 min 33 W/m 12,6 km/h (3 Bft) 93,62 %
15.11.2016 11:04 7,6 C 7,8 C 6,7 C 99 % 15 lf 1024,7 hPa 0,0 l/m 0 min 0 min 31 W/m 12,6 km/h (3 Bft) 95,74 %
15.11.2016 11:06 7,6 C 7,8 C 6,7 C 99 % 15 lf 1024,8 hPa 0,0 l/m 0 min 0 min 37 W/m 18,8 km/h (3 Bft) 95,74 %
15.11.2016 11:08 7,7 C 7,8 C 6,7 C 99 % 15 lf 1024,7 hPa 0,0 l/m 0 min 0 min 41 W/m 14,6 km/h (3 Bft) 93,62 %
15.11.2016 11:10 7,7 C 7,8 C 6,7 C 99 % 15 lf 1024,7 hPa 0,0 l/m 0 min 0 min 41 W/m 14,6 km/h (3 Bft) 93,48 %
15.11.2016 11:12 7,7 C 7,8 C 6,7 C 99 % 15 lf 1024,7 hPa 0,0 l/m 0 min 0 min 37 W/m 18,8 km/h (3 Bft) 93,62 %
15.11.2016 11:14 7,7 C 7,8 C 6,7 C 99 % 15 lf 1024,6 hPa 0,0 l/m 0 min 0 min 33 W/m 20,9 km/h (4 Bft) 97,87 %
15.11.2016 11:16 7,7 C 7,8 C 6,7 C 99 % 15 lf 1024,6 hPa 0,0 l/m 0 min 0 min 32 W/m 12,6 km/h (3 Bft) 93,62 %
15.11.2016 11:18 7,7 C 7,8 C 6,7 C 99 % 15 lf 1024,6 hPa 0,0 l/m 0 min 0 min 29 W/m 25,1 km/h (4 Bft) 97,87 %
15.11.2016 11:20 7,7 C 7,8 C 6,7 C 99 % 15 lf 1024,6 hPa 0,0 l/m 0 min 0 min 25 W/m 18,8 km/h (3 Bft) 97,87 %
15.11.2016 11:22 7,7 C 7,8 C 6,7 C 99 % 15 lf 1024,6 hPa 0,0 l/m 0 min 0 min 24 W/m 12,6 km/h (3 Bft) 97,83 %
15.11.2016 11:24 7,7 C 7,8 C 6,7 C 99 % 15 lf 1024,6 hPa 0,0 l/m 0 min 0 min 26 W/m 16,7 km/h (3 Bft) 95,74 %
15.11.2016 11:26 7,7 C 7,8 C 6,7 C 99 % 15 lf 1024,6 hPa 0,0 l/m 0 min 0 min 27 W/m 14,6 km/h (3 Bft) 97,87 %
15.11.2016 11:28 7,7 C 7,8 C 6,7 C 99 % 15 lf 1024,6 hPa 0,0 l/m 0 min 0 min 27 W/m 14,6 km/h (3 Bft) 97,87 %
15.11.2016 11:30 7,7 C 7,8 C 6,7 C 99 % 15 lf 1024,7 hPa 0,0 l/m 0 min 0 min 28 W/m 20,9 km/h (4 Bft) 95,74 %
15.11.2016 11:32 7,8 C 7,8 C 6,7 C 99 % 15 lf 1024,5 hPa 0,0 l/m 0 min 0 min 30 W/m 23,0 km/h (4 Bft) 93,48 %
15.11.2016 11:34 7,8 C 7,8 C 6,7 C 99 % 15 lf 1024,4 hPa 0,0 l/m 0 min 0 min 28 W/m 18,8 km/h (3 Bft) 97,87 %
15.11.2016 11:36 7,8 C 7,8 C 6,7 C 99 % 15 lf 1024,4 hPa 0,0 l/m 0 min 0 min 24 W/m 16,7 km/h (3 Bft) 97,87 %
15.11.2016 11:38 7,8 C 7,8 C 6,7 C 99 % 15 lf 1024,4 hPa 0,0 l/m 0 min 0 min 23 W/m 16,7 km/h (3 Bft) 97,87 %
15.11.2016 11:40 7,8 C 7,8 C 6,7 C 99 % 15 lf 1024,5 hPa 0,0 l/m 0 min 0 min 24 W/m 16,7 km/h (3 Bft) 97,87 %
15.11.2016 11:42 7,8 C 7,8 C 6,7 C 99 % 15 lf 1024,5 hPa 0,0 l/m 0 min 0 min 25 W/m 20,9 km/h (4 Bft) 97,87 %
15.11.2016 11:44 7,8 C 7,8 C 6,7 C 99 % 15 lf 1024,7 hPa 0,0 l/m 0 min 0 min 29 W/m 18,8 km/h (3 Bft) 93,48 %
15.11.2016 11:46 7,8 C 7,8 C 6,7 C 99 % 15 lf 1024,6 hPa 0,0 l/m 0 min 0 min 30 W/m 18,8 km/h (3 Bft) 100,00 %
15.11.2016 11:48 7,8 C 7,8 C 6,7 C 99 % 15 lf 1024,7 hPa 0,0 l/m 0 min 0 min 29 W/m 12,6 km/h (3 Bft) 100,00 %
15.11.2016 11:50 7,8 C 7,8 C 6,7 C 99 % 15 lf 1024,7 hPa 0,0 l/m 0 min 0 min 27 W/m 12,6 km/h (3 Bft) 97,87 %
15.11.2016 11:52 7,8 C 7,8 C 6,7 C 99 % 15 lf 1024,6 hPa 0,0 l/m 0 min 0 min 26 W/m 18,8 km/h (3 Bft) 100,00 %
15.11.2016 11:54 7,8 C 7,8 C 6,7 C 99 % 15 lf 1024,6 hPa 0,0 l/m 0 min 0 min 26 W/m 14,6 km/h (3 Bft) 93,62 %
15.11.2016 11:56 7,9 C 7,8 C 6,7 C 99 % 15 lf 1024,5 hPa 0,0 l/m 0 min 0 min 31 W/m 20,9 km/h (4 Bft) 100,00 %
15.11.2016 11:58 7,9 C 7,8 C 6,7 C 99 % 15 lf 1024,4 hPa 0,0 l/m 0 min 0 min 29 W/m 20,9 km/h (4 Bft) 100,00 %
15.11.2016 12:00 7,9 C 7,8 C 6,7 C 99 % 15 lf 1024,5 hPa 0,0 l/m 0 min 0 min 24 W/m 16,7 km/h (3 Bft) 100,00 %
15.11.2016 12:02 7,9 C 7,8 C 6,7 C 99 % 15 lf 1024,4 hPa 0,0 l/m 0 min 0 min 20 W/m 14,6 km/h (3 Bft) 100,00 %
15.11.2016 12:06 7,9 C 8,3 C 6,7 C 99 % 15 lf 1024,3 hPa 0,0 l/m 0 min 0 min 27 W/m 16,7 km/h (3 Bft) 97,89 %
15.11.2016 12:08 7,9 C 8,3 C 6,7 C 99 % 15 lf 1024,2 hPa 0,0 l/m 0 min 0 min 37 W/m 23,0 km/h (4 Bft) 100,00 %
15.11.2016 12:10 7,9 C 8,3 C 7,2 C 99 % 15 lf 1024,1 hPa 0,0 l/m 0 min 0 min 38 W/m 14,6 km/h (3 Bft) 100,00 %
15.11.2016 12:12 7,9 C 8,3 C 7,2 C 99 % 15 lf 1024,1 hPa 0,0 l/m 0 min 0 min 42 W/m 16,7 km/h (3 Bft) 100,00 %
15.11.2016 12:14 8,0 C 8,3 C 7,2 C 99 % 15 lf 1024,1 hPa 0,0 l/m 0 min 0 min 44 W/m 18,8 km/h (3 Bft) 95,74 %
15.11.2016 12:16 8,0 C 8,3 C 7,2 C 99 % 15 lf 1024,1 hPa 0,2 l/m 0 min 0 min 47 W/m 20,9 km/h (4 Bft) 95,74 %
15.11.2016 12:18 8,0 C 8,3 C 7,2 C 99 % 15 lf 1024,0 hPa 0,0 l/m 0 min 0 min 46 W/m 23,0 km/h (4 Bft) 93,62 %
15.11.2016 12:20 8,1 C 8,3 C 7,2 C 99 % 15 lf 1024,0 hPa 0,0 l/m 0 min 0 min 43 W/m 23,0 km/h (4 Bft) 93,48 %
15.11.2016 12:22 8,1 C 8,3 C 7,2 C 99 % 15 lf 1024,0 hPa 0,0 l/m 0 min 0 min 40 W/m 20,9 km/h (4 Bft) 87,23 %
15.11.2016 12:24 8,1 C 8,3 C 7,2 C 99 % 15 lf 1023,9 hPa 0,0 l/m 0 min 0 min 48 W/m 20,9 km/h (4 Bft) 93,62 %
15.11.2016 12:26 8,1 C 8,3 C 7,2 C 99 % 15 lf 1023,9 hPa 0,0 l/m 0 min 2 min 54 W/m 20,9 km/h (4 Bft) 89,36 %
15.11.2016 12:28 8,1 C 8,3 C 7,2 C 99 % 15 lf 1023,9 hPa 0,0 l/m 0 min 0 min 56 W/m 14,6 km/h (3 Bft) 95,74 %
15.11.2016 12:30 8,1 C 8,3 C 7,2 C 99 % 15 lf 1023,9 hPa 0,0 l/m 0 min 0 min 50 W/m 29,3 km/h (5 Bft) 93,62 %
15.11.2016 12:32 8,2 C 8,3 C 7,2 C 99 % 15 lf 1023,9 hPa 0,0 l/m 0 min 0 min 42 W/m 25,1 km/h (4 Bft) 95,65 %
15.11.2016 12:34 8,2 C 8,3 C 7,2 C 99 % 15 lf 1023,9 hPa 0,0 l/m 0 min 0 min 34 W/m 25,1 km/h (4 Bft) 92,31 %
15.11.2016 12:36 8,2 C 8,3 C 7,2 C 99 % 15 lf 1023,9 hPa 0,0 l/m 0 min 0 min 35 W/m 25,1 km/h (4 Bft) 93,62 %
15.11.2016 12:38 8,2 C 8,3 C 7,2 C 99 % 15 lf 1023,9 hPa 0,0 l/m 0 min 0 min 33 W/m 23,0 km/h (4 Bft) 93,62 %
15.11.2016 12:40 8,2 C 8,3 C 7,2 C 99 % 15 lf 1023,9 hPa 0,0 l/m 0 min 0 min 34 W/m 25,1 km/h (4 Bft) 93,62 %
15.11.2016 12:42 8,2 C 8,3 C 7,2 C 99 % 15 lf 1023,9 hPa 0,0 l/m 0 min 0 min 37 W/m 23,0 km/h (4 Bft) 89,36 %
15.11.2016 12:44 8,2 C 8,3 C 7,2 C 99 % 15 lf 1023,9 hPa 0,0 l/m 0 min 0 min 42 W/m 20,9 km/h (4 Bft) 93,62 %
15.11.2016 12:46 8,3 C 8,3 C 7,2 C 99 % 15 lf 1023,8 hPa 0,0 l/m 0 min 0 min 42 W/m 23,0 km/h (4 Bft) 91,30 %
15.11.2016 12:48 8,3 C 8,3 C 7,2 C 99 % 15 lf 1023,8 hPa 0,0 l/m 0 min 0 min 41 W/m 25,1 km/h (4 Bft) 93,62 %
15.11.2016 12:50 8,3 C 8,3 C 7,2 C 99 % 15 lf 1023,8 hPa 0,0 l/m 0 min 0 min 38 W/m 18,8 km/h (3 Bft) 93,62 %
15.11.2016 12:52 8,3 C 8,3 C 7,2 C 99 % 15 lf 1023,7 hPa 0,0 l/m 0 min 0 min 32 W/m 14,6 km/h (3 Bft) 93,62 %
15.11.2016 12:54 8,3 C 8,3 C 7,2 C 99 % 15 lf 1023,7 hPa 0,0 l/m 0 min 0 min 27 W/m 16,7 km/h (3 Bft) 93,62 %
15.11.2016 12:56 8,3 C 8,3 C 7,2 C 99 % 15 lf 1023,7 hPa 0,0 l/m 0 min 0 min 23 W/m 14,6 km/h (3 Bft) 91,30 %
15.11.2016 12:58 8,3 C 8,3 C 7,2 C 99 % 15 lf 1023,6 hPa 0,0 l/m 0 min 0 min 29 W/m 14,6 km/h (3 Bft) 91,49 %
15.11.2016 13:00 8,3 C 8,3 C 7,2 C 99 % 15 lf 1023,6 hPa 0,0 l/m 0 min 0 min 42 W/m 23,0 km/h (4 Bft) 93,62 %
15.11.2016 13:02 8,3 C 8,3 C 7,2 C 99 % 15 lf 1023,6 hPa 0,0 l/m 0 min 0 min 47 W/m 16,7 km/h (3 Bft) 95,74 %
15.11.2016 13:04 8,3 C 8,3 C 7,2 C 99 % 15 lf 1023,5 hPa 0,0 l/m 0 min 0 min 50 W/m 18,8 km/h (3 Bft) 95,74 %
15.11.2016 13:06 8,3 C 8,3 C 7,2 C 99 % 15 lf 1023,5 hPa 0,0 l/m 0 min 0 min 53 W/m 20,9 km/h (4 Bft) 97,87 %
15.11.2016 13:08 8,3 C 8,3 C 7,2 C 99 % 15 lf 1023,5 hPa 0,0 l/m 0 min 0 min 52 W/m 25,1 km/h (4 Bft) 97,83 %
15.11.2016 13:10 8,3 C 8,3 C 7,2 C 99 % 15 lf 1023,5 hPa 0,0 l/m 0 min 0 min 58 W/m 18,8 km/h (3 Bft) 100,00 %
15.11.2016 13:12 8,4 C 8,3 C 7,2 C 99 % 15 lf 1023,5 hPa 0,0 l/m 0 min 0 min 57 W/m 25,1 km/h (4 Bft) 97,87 %
15.11.2016 13:14 8,4 C 8,9 C 7,8 C 99 % 15 lf 1023,5 hPa 0,0 l/m 0 min 0 min 61 W/m 14,6 km/h (3 Bft) 100,00 %
15.11.2016 13:16 8,4 C 8,9 C 7,8 C 99 % 15 lf 1023,4 hPa 0,0 l/m 0 min 0 min 60 W/m 18,8 km/h (3 Bft) 100,00 %
15.11.2016 13:18 8,4 C 8,9 C 7,8 C 99 % 15 lf 1023,4 hPa 0,0 l/m 0 min 0 min 63 W/m 18,8 km/h (3 Bft) 100,00 %
15.11.2016 13:20 8,4 C 8,9 C 7,8 C 99 % 15 lf 1023,2 hPa 0,0 l/m 0 min 0 min 77 W/m 20,9 km/h (4 Bft) 100,00 %
15.11.2016 13:22 8,4 C 8,9 C 7,8 C 99 % 15 lf 1023,3 hPa 0,0 l/m 0 min 0 min 74 W/m 18,8 km/h (3 Bft) 97,87 %
15.11.2016 13:24 8,4 C 8,9 C 7,8 C 99 % 15 lf 1023,2 hPa 0,0 l/m 0 min 0 min 81 W/m 23,0 km/h (4 Bft) 97,87 %
15.11.2016 13:26 8,5 C 8,9 C 7,8 C 99 % 15 lf 1023,1 hPa 0,0 l/m 0 min 0 min 79 W/m 23,0 km/h (4 Bft) 100,00 %
15.11.2016 13:28 8,5 C 8,9 C 7,8 C 99 % 15 lf 1023,2 hPa 0,0 l/m 0 min 0 min 74 W/m 18,8 km/h (3 Bft) 97,87 %
15.11.2016 13:30 8,5 C 8,9 C 7,8 C 99 % 15 lf 1023,1 hPa 0,0 l/m 0 min 0 min 71 W/m 23,0 km/h (4 Bft) 100,00 %
15.11.2016 13:32 8,6 C 8,9 C 7,8 C 99 % 15 lf 1023,1 hPa 0,0 l/m 0 min 0 min 81 W/m 25,1 km/h (4 Bft) 100,00 %
15.11.2016 13:34 8,6 C 8,9 C 8,3 C 99 % 15 lf 1023,1 hPa 0,0 l/m 0 min 0 min 100 W/m 27,2 km/h (4 Bft) 100,00 %
15.11.2016 13:36 8,6 C 8,9 C 8,3 C 99 % 15 lf 1023,1 hPa 0,0 l/m 0 min 0 min 108 W/m 23,0 km/h (4 Bft) 100,00 %
15.11.2016 13:38 8,6 C 8,9 C 8,3 C 99 % 15 lf 1023,1 hPa 0,0 l/m 0 min 0 min 88 W/m 23,0 km/h (4 Bft) 100,00 %
15.11.2016 13:39 8,6 C 8,9 C 8,3 C 99 % 15 lf 1023,1 hPa 0,0 l/m 0 min 0 min 72 W/m 18,8 km/h (3 Bft) 100,00 %
15.11.2016 13:42 8,7 C 8,9 C 8,3 C 99 % 15 lf 1023,1 hPa 0,0 l/m 0 min 0 min 65 W/m 18,8 km/h (3 Bft) 98,15 %
15.11.2016 13:44 8,7 C 8,9 C 7,8 C 99 % 15 lf 1023,2 hPa 0,0 l/m 0 min 0 min 53 W/m 14,6 km/h (3 Bft) 97,87 %
15.11.2016 13:46 8,7 C 8,9 C 7,8 C 99 % 15 lf 1023,1 hPa 0,0 l/m 0 min 0 min 39 W/m 18,8 km/h (3 Bft) 100,00 %
15.11.2016 13:48 8,7 C 8,9 C 7,8 C 99 % 15 lf 1023,2 hPa 0,0 l/m 0 min 0 min 42 W/m 18,8 km/h (3 Bft) 100,00 %
15.11.2016 13:50 8,7 C 8,9 C 7,8 C 99 % 15 lf 1023,2 hPa 0,0 l/m 0 min 0 min 44 W/m 16,7 km/h (3 Bft) 100,00 %
15.11.2016 13:51 8,7 C 8,9 C 7,8 C 99 % 15 lf 1023,2 hPa 0,0 l/m 0 min 0 min 30 W/m 16,7 km/h (3 Bft) 100,00 %
15.11.2016 13:52 8,7 C 8,9 C 7,8 C 99 % 15 lf 1023,2 hPa 0,0 l/m 0 min 0 min 28 W/m 14,6 km/h (3 Bft) 100,00 %
15.11.2016 13:53 8,7 C 8,9 C 7,8 C 99 % 15 lf 1023,1 hPa 0,0 l/m 0 min 0 min 23 W/m 20,9 km/h (4 Bft) 100,00 %
15.11.2016 13:56 8,7 C 8,9 C 7,8 C 99 % 15 lf 1023,2 hPa 0,0 l/m 0 min 0 min 16 W/m 23,0 km/h (4 Bft) 97,30 %
15.11.2016 13:58 8,7 C 8,9 C 7,8 C 99 % 15 lf 1023,2 hPa 0,0 l/m 0 min 0 min 16 W/m 18,8 km/h (3 Bft) 100,00 %
15.11.2016 14:00 8,7 C 8,9 C 7,8 C 99 % 15 lf 1023,2 hPa 0,0 l/m 0 min 0 min 16 W/m 18,8 km/h (3 Bft) 97,87 %
15.11.2016 14:02 8,7 C 8,9 C 7,8 C 99 % 15 lf 1023,2 hPa 0,0 l/m 0 min 0 min 14 W/m 27,2 km/h (4 Bft) 100,00 %
15.11.2016 14:04 8,7 C 8,9 C 7,8 C 99 % 15 lf 1023,2 hPa 0,0 l/m 0 min 0 min 12 W/m 31,4 km/h (5 Bft) 100,00 %
15.11.2016 14:06 8,7 C 8,9 C 7,8 C 99 % 15 lf 1023,2 hPa 0,0 l/m 0 min 0 min 15 W/m 29,3 km/h (5 Bft) 100,00 %
15.11.2016 14:08 8,7 C 8,9 C 7,8 C 99 % 15 lf 1023,2 hPa 0,0 l/m 0 min 0 min 22 W/m 25,1 km/h (4 Bft) 100,00 %
15.11.2016 14:10 8,7 C 8,9 C 7,8 C 99 % 15 lf 1023,3 hPa 0,0 l/m 0 min 0 min 22 W/m 23,0 km/h (4 Bft) 97,87 %
15.11.2016 14:12 8,7 C 8,9 C 7,8 C 99 % 15 lf 1023,2 hPa 0,0 l/m 0 min 0 min 26 W/m 27,2 km/h (4 Bft) 97,87 %
15.11.2016 14:14 8,7 C 8,9 C 7,8 C 99 % 15 lf 1023,2 hPa 0,0 l/m 0 min 0 min 27 W/m 18,8 km/h (3 Bft) 97,87 %
15.11.2016 14:16 8,7 C 8,9 C 7,8 C 99 % 15 lf 1023,2 hPa 0,0 l/m 0 min 0 min 21 W/m 29,3 km/h (5 Bft) 100,00 %
15.11.2016 14:18 8,7 C 8,9 C 7,8 C 99 % 15 lf 1023,2 hPa 0,0 l/m 0 min 0 min 26 W/m 25,1 km/h (4 Bft) 97,83 %
15.11.2016 14:20 8,7 C 8,9 C 7,8 C 99 % 15 lf 1023,2 hPa 0,0 l/m 0 min 0 min 28 W/m 23,0 km/h (4 Bft) 97,87 %
15.11.2016 14:22 8,7 C 8,9 C 7,8 C 99 % 15 lf 1023,2 hPa 0,0 l/m 0 min 0 min 30 W/m 23,0 km/h (4 Bft) 93,62 %
15.11.2016 14:24 8,7 C 8,9 C 7,8 C 99 % 15 lf 1023,2 hPa 0,0 l/m 0 min 0 min 28 W/m 20,9 km/h (4 Bft) 91,49 %
15.11.2016 14:26 8,7 C 8,9 C 7,8 C 99 % 15 lf 1023,2 hPa 0,0 l/m 0 min 0 min 27 W/m 18,8 km/h (3 Bft) 97,87 %
15.11.2016 14:28 8,7 C 8,9 C 7,8 C 99 % 15 lf 1023,1 hPa 0,0 l/m 0 min 0 min 28 W/m 18,8 km/h (3 Bft) 95,74 %
15.11.2016 14:30 8,7 C 8,9 C 7,8 C 99 % 15 lf 1023,1 hPa 0,0 l/m 0 min 0 min 28 W/m 29,3 km/h (5 Bft) 97,83 %
15.11.2016 14:32 8,7 C 8,9 C 7,8 C 99 % 15 lf 1023,1 hPa 0,0 l/m 0 min 0 min 29 W/m 27,2 km/h (4 Bft) 91,49 %
15.11.2016 14:34 8,7 C 8,9 C 7,8 C 99 % 15 lf 1023,1 hPa 0,0 l/m 0 min 0 min 33 W/m 20,9 km/h (4 Bft) 91,49 %
15.11.2016 14:36 8,7 C 8,9 C 7,8 C 99 % 15 lf 1023,1 hPa 0,0 l/m 0 min 0 min 37 W/m 18,8 km/h (3 Bft) 91,49 %
15.11.2016 14:38 8,7 C 8,9 C 7,8 C 99 % 15 lf 1023,1 hPa 0,0 l/m 0 min 0 min 33 W/m 29,3 km/h (5 Bft) 95,74 %
15.11.2016 14:40 8,8 C 8,9 C 7,8 C 99 % 15 lf 1023,2 hPa 0,0 l/m 0 min 0 min 27 W/m 20,9 km/h (4 Bft) 95,45 %
15.11.2016 14:42 8,8 C 8,9 C 7,8 C 99 % 15 lf 1023,1 hPa 0,0 l/m 0 min 0 min 33 W/m 20,9 km/h (4 Bft) 93,62 %
15.11.2016 14:44 8,8 C 8,9 C 7,8 C 99 % 15 lf 1023,1 hPa 0,0 l/m 0 min 0 min 37 W/m 29,3 km/h (5 Bft) 93,62 %
15.11.2016 14:46 8,8 C 8,9 C 7,8 C 99 % 15 lf 1023,1 hPa 0,0 l/m 0 min 0 min 36 W/m 23,0 km/h (4 Bft) 93,62 %
15.11.2016 14:48 8,8 C 8,9 C 7,8 C 99 % 15 lf 1023,1 hPa 0,0 l/m 0 min 0 min 34 W/m 20,9 km/h (4 Bft) 95,65 %
15.11.2016 14:50 8,8 C 8,9 C 7,8 C 99 % 15 lf 1023,1 hPa 0,0 l/m 0 min 0 min 37 W/m 20,9 km/h (4 Bft) 93,62 %
15.11.2016 14:52 8,8 C 8,9 C 7,8 C 99 % 15 lf 1023,1 hPa 0,0 l/m 0 min 0 min 38 W/m 29,3 km/h (5 Bft) 93,62 %
15.11.2016 14:54 8,8 C 8,9 C 7,8 C 99 % 15 lf 1023,1 hPa 0,0 l/m 0 min 0 min 41 W/m 16,7 km/h (3 Bft) 93,62 %
15.11.2016 14:56 8,8 C 8,9 C 7,8 C 99 % 15 lf 1023,1 hPa 0,0 l/m 0 min 0 min 46 W/m 20,9 km/h (4 Bft) 91,49 %
15.11.2016 14:58 8,8 C 8,9 C 7,8 C 99 % 15 lf 1023,1 hPa 0,0 l/m 0 min 0 min 55 W/m 25,1 km/h (4 Bft) 95,74 %
15.11.2016 15:00 8,8 C 8,9 C 7,8 C 99 % 15 lf 1023,1 hPa 0,0 l/m 0 min 0 min 54 W/m 18,8 km/h (3 Bft) 91,49 %
15.11.2016 15:02 8,9 C 8,9 C 7,8 C 99 % 15 lf 1023,1 hPa 0,0 l/m 0 min 0 min 48 W/m 20,9 km/h (4 Bft) 95,65 %
15.11.2016 15:04 8,9 C 8,9 C 7,8 C 99 % 15 lf 1023,1 hPa 0,0 l/m 0 min 0 min 45 W/m 25,1 km/h (4 Bft) 95,74 %
15.11.2016 15:06 8,9 C 8,9 C 7,8 C 99 % 15 lf 1023,0 hPa 0,0 l/m 0 min 0 min 44 W/m 23,0 km/h (4 Bft) 95,74 %
15.11.2016 15:08 8,9 C 8,9 C 7,8 C 99 % 15 lf 1023,1 hPa 0,0 l/m 0 min 0 min 43 W/m 29,3 km/h (5 Bft) 93,62 %
15.11.2016 15:10 8,9 C 8,9 C 7,8 C 99 % 15 lf 1023,1 hPa 0,0 l/m 0 min 0 min 39 W/m 18,8 km/h (3 Bft) 89,36 %
15.11.2016 15:12 8,9 C 8,9 C 7,8 C 99 % 15 lf 1023,1 hPa 0,0 l/m 0 min 0 min 33 W/m 14,6 km/h (3 Bft) 89,13 %
15.11.2016 15:14 8,9 C 8,9 C 7,8 C 99 % 15 lf 1023,1 hPa 0,0 l/m 0 min 0 min 25 W/m 29,3 km/h (5 Bft) 89,36 %
15.11.2016 15:16 8,9 C 8,9 C 7,8 C 99 % 15 lf 1023,1 hPa 0,0 l/m 0 min 0 min 25 W/m 23,0 km/h (4 Bft) 91,49 %
15.11.2016 15:18 8,9 C 8,9 C 7,8 C 99 % 15 lf 1023,1 hPa 0,0 l/m 0 min 0 min 26 W/m 20,9 km/h (4 Bft) 91,49 %
15.11.2016 15:20 8,9 C 8,9 C 7,8 C 99 % 15 lf 1023,1 hPa 0,0 l/m 0 min 0 min 29 W/m 20,9 km/h (4 Bft) 93,62 %
15.11.2016 15:22 8,9 C 8,9 C 7,8 C 99 % 15 lf 1023,1 hPa 0,0 l/m 0 min 0 min 30 W/m 18,8 km/h (3 Bft) 91,49 %
15.11.2016 15:24 8,9 C 8,9 C 7,8 C 99 % 15 lf 1023,1 hPa 0,0 l/m 0 min 0 min 27 W/m 20,9 km/h (4 Bft) 93,48 %
15.11.2016 15:26 8,9 C 8,9 C 7,8 C 99 % 15 lf 1023,1 hPa 0,0 l/m 0 min 0 min 28 W/m 20,9 km/h (4 Bft) 93,62 %
15.11.2016 15:28 9,0 C 8,9 C 7,8 C 99 % 15 lf 1023,0 hPa 0,0 l/m 0 min 0 min 31 W/m 18,8 km/h (3 Bft) 93,62 %
15.11.2016 15:30 9,0 C 9,4 C 7,8 C 99 % 15 lf 1023,0 hPa 0,0 l/m 0 min 0 min 41 W/m 14,6 km/h (3 Bft) 95,74 %
15.11.2016 15:32 9,0 C 9,4 C 7,8 C 99 % 15 lf 1023,1 hPa 0,0 l/m 0 min 0 min 40 W/m 23,0 km/h (4 Bft) 95,74 %
15.11.2016 15:34 9,0 C 9,4 C 7,8 C 99 % 15 lf 1023,1 hPa 0,0 l/m 0 min 0 min 42 W/m 20,9 km/h (4 Bft) 93,62 %
15.11.2016 15:36 9,0 C 9,4 C 7,8 C 99 % 15 lf 1023,0 hPa 0,0 l/m 0 min 0 min 35 W/m 16,7 km/h (3 Bft) 95,65 %
15.11.2016 15:38 9,0 C 9,4 C 7,8 C 99 % 15 lf 1023,0 hPa 0,0 l/m 0 min 0 min 23 W/m 14,6 km/h (3 Bft) 91,49 %
15.11.2016 15:40 9,0 C 9,4 C 7,8 C 99 % 15 lf 1023,0 hPa 0,0 l/m 0 min 0 min 20 W/m 25,1 km/h (4 Bft) 93,62 %
15.11.2016 15:42 9,1 C 9,4 C 7,8 C 99 % 15 lf 1023,0 hPa 0,0 l/m 0 min 0 min 15 W/m 25,1 km/h (4 Bft) 93,62 %
15.11.2016 15:44 9,0 C 9,4 C 7,8 C 99 % 15 lf 1023,0 hPa 0,0 l/m 0 min 0 min 14 W/m 14,6 km/h (3 Bft) 89,36 %
15.11.2016 15:46 9,0 C 9,4 C 7,8 C 99 % 15 lf 1023,1 hPa 0,0 l/m 0 min 0 min 12 W/m 23,0 km/h (4 Bft) 91,49 %
15.11.2016 15:48 9,0 C 8,9 C 7,8 C 99 % 15 lf 1023,0 hPa 0,0 l/m 0 min 0 min 12 W/m 14,6 km/h (3 Bft) 97,83 %
15.11.2016 15:50 9,1 C 9,4 C 7,8 C 99 % 15 lf 1023,0 hPa 0,0 l/m 0 min 0 min 12 W/m 23,0 km/h (4 Bft) 95,74 %
15.11.2016 15:52 9,1 C 9,4 C 7,8 C 99 % 15 lf 1023,0 hPa 0,0 l/m 0 min 0 min 14 W/m 16,7 km/h (3 Bft) 93,62 %
15.11.2016 15:54 9,1 C 9,4 C 7,8 C 99 % 15 lf 1023,0 hPa 0,0 l/m 0 min 0 min 13 W/m 16,7 km/h (3 Bft) 95,74 %
15.11.2016 15:56 9,1 C 9,4 C 7,8 C 99 % 15 lf 1023,0 hPa 0,0 l/m 0 min 0 min 12 W/m 16,7 km/h (3 Bft) 97,87 %
15.11.2016 15:58 9,1 C 9,4 C 7,8 C 99 % 15 lf 1023,0 hPa 0,0 l/m 0 min 0 min 13 W/m 25,1 km/h (4 Bft) 95,65 %
15.11.2016 16:00 9,1 C 9,4 C 7,8 C 99 % 15 lf 1023,0 hPa 0,0 l/m 0 min 0 min 12 W/m 23,0 km/h (4 Bft) 100,00 %
15.11.2016 16:02 9,1 C 9,4 C 7,8 C 99 % 15 lf 1023,0 hPa 0,0 l/m 0 min 0 min 11 W/m 14,6 km/h (3 Bft) 95,74 %
15.11.2016 16:04 9,1 C 9,4 C 7,8 C 99 % 15 lf 1023,0 hPa 0,0 l/m 0 min 0 min 11 W/m 18,8 km/h (3 Bft) 100,00 %
15.11.2016 16:06 9,1 C 9,4 C 7,8 C 99 % 15 lf 1023,1 hPa 0,0 l/m 0 min 0 min 9 W/m 12,6 km/h (3 Bft) 97,87 %
15.11.2016 16:08 9,1 C 9,4 C 7,8 C 99 % 15 lf 1023,1 hPa 0,0 l/m 0 min 0 min 9 W/m 14,6 km/h (3 Bft) 97,87 %
15.11.2016 16:10 9,1 C 9,4 C 7,8 C 99 % 15 lf 1023,1 hPa 0,0 l/m 0 min 0 min 9 W/m 12,6 km/h (3 Bft) 95,65 %
15.11.2016 16:12 9,1 C 9,4 C 7,8 C 99 % 15 lf 1023,1 hPa 0,0 l/m 0 min 0 min 7 W/m 14,6 km/h (3 Bft) 100,00 %
15.11.2016 16:14 9,1 C 9,4 C 7,8 C 99 % 15 lf 1023,1 hPa 0,0 l/m 0 min 0 min 7 W/m 16,7 km/h (3 Bft) 100,00 %
15.11.2016 16:16 9,1 C 9,4 C 7,8 C 99 % 15 lf 1023,1 hPa 0,0 l/m 0 min 0 min 7 W/m 14,6 km/h (3 Bft) 97,87 %
15.11.2016 16:18 9,1 C 9,4 C 7,8 C 99 % 15 lf 1023,1 hPa 0,0 l/m 0 min 0 min 7 W/m 23,0 km/h (4 Bft) 95,74 %
15.11.2016 16:20 9,1 C 9,4 C 7,8 C 99 % 15 lf 1023,1 hPa 0,0 l/m 0 min 0 min 5 W/m 16,7 km/h (3 Bft) 95,74 %
15.11.2016 16:22 9,1 C 9,4 C 7,8 C 99 % 15 lf 1023,2 hPa 0,0 l/m 0 min 0 min 5 W/m 14,6 km/h (3 Bft) 95,65 %
15.11.2016 16:24 9,1 C 9,4 C 7,8 C 99 % 15 lf 1023,1 hPa 0,0 l/m 0 min 0 min 5 W/m 14,6 km/h (3 Bft) 97,87 %
15.11.2016 16:26 9,1 C 9,4 C 7,8 C 99 % 15 lf 1023,1 hPa 0,0 l/m 0 min 0 min 5 W/m 16,7 km/h (3 Bft) 97,87 %
15.11.2016 16:28 9,1 C 9,4 C 7,8 C 99 % 15 lf 1023,1 hPa 0,0 l/m 0 min 0 min 5 W/m 20,9 km/h (4 Bft) 97,87 %
15.11.2016 16:30 9,2 C 9,4 C 7,8 C 99 % 15 lf 1023,1 hPa 0,0 l/m 0 min 0 min 5 W/m 18,8 km/h (3 Bft) 97,87 %
15.11.2016 16:32 9,2 C 9,4 C 7,8 C 99 % 15 lf 1023,1 hPa 0,0 l/m 0 min 0 min 5 W/m 23,0 km/h (4 Bft) 93,62 %
15.11.2016 16:34 9,2 C 9,4 C 7,8 C 99 % 15 lf 1023,1 hPa 0,0 l/m 0 min 0 min 5 W/m 18,8 km/h (3 Bft) 97,83 %
15.11.2016 16:36 9,2 C 9,4 C 7,8 C 99 % 15 lf 1023,1 hPa 0,0 l/m 0 min 0 min 5 W/m 18,8 km/h (3 Bft) 95,74 %
15.11.2016 16:38 9,2 C 9,4 C 7,8 C 99 % 15 lf 1023,1 hPa 0,0 l/m 0 min 0 min 5 W/m 20,9 km/h (4 Bft) 96,36 %
15.11.2016 16:40 9,2 C 9,4 C 7,8 C 99 % 15 lf 1023,2 hPa 0,0 l/m 0 min 0 min 5 W/m 18,8 km/h (3 Bft) 95,74 %
15.11.2016 16:42 9,2 C 9,4 C 7,8 C 99 % 15 lf 1023,1 hPa 0,0 l/m 0 min 0 min 5 W/m 16,7 km/h (3 Bft) 97,87 %
15.11.2016 16:44 9,2 C 9,4 C 7,8 C 99 % 15 lf 1023,1 hPa 0,0 l/m 0 min 0 min 5 W/m 16,7 km/h (3 Bft) 95,74 %
15.11.2016 16:46 9,2 C 9,4 C 7,8 C 99 % 15 lf 1023,2 hPa 0,0 l/m 0 min 0 min 3 W/m 18,8 km/h (3 Bft) 97,87 %
15.11.2016 16:48 9,2 C 9,4 C 7,8 C 99 % 15 lf 1023,2 hPa 0,0 l/m 0 min 0 min 0 W/m 18,8 km/h (3 Bft) 97,87 %
15.11.2016 16:50 9,2 C 9,4 C 7,8 C 99 % 15 lf 1023,2 hPa 0,0 l/m 0 min 0 min 0 W/m 16,7 km/h (3 Bft) 95,65 %
15.11.2016 16:52 9,2 C 9,4 C 7,8 C 99 % 15 lf 1023,2 hPa 0,0 l/m 0 min 0 min 0 W/m 23,0 km/h (4 Bft) 97,87 %
15.11.2016 16:54 9,2 C 9,4 C 7,8 C 99 % 15 lf 1023,2 hPa 0,0 l/m 0 min 0 min 0 W/m 18,8 km/h (3 Bft) 97,87 %
15.11.2016 16:56 9,2 C 9,4 C 7,8 C 99 % 15 lf 1023,2 hPa 0,0 l/m 0 min 0 min 0 W/m 18,8 km/h (3 Bft) 93,62 %
15.11.2016 16:58 9,3 C 9,4 C 7,8 C 99 % 15 lf 1023,2 hPa 0,0 l/m 0 min 0 min 0 W/m 18,8 km/h (3 Bft) 95,74 %
15.11.2016 17:00 9,2 C 9,4 C 7,8 C 99 % 15 lf 1023,2 hPa 0,0 l/m 0 min 0 min 0 W/m 14,6 km/h (3 Bft) 100,00 %
15.11.2016 17:02 9,3 C 9,4 C 7,8 C 99 % 15 lf 1023,1 hPa 0,0 l/m 0 min 0 min 0 W/m 23,0 km/h (4 Bft) 100,00 %
15.11.2016 17:04 9,3 C 9,4 C 7,8 C 99 % 15 lf 1023,1 hPa 0,0 l/m 0 min 0 min 0 W/m 18,8 km/h (3 Bft) 100,00 %
15.11.2016 17:06 9,3 C 9,4 C 7,8 C 99 % 15 lf 1023,1 hPa 0,0 l/m 0 min 0 min 0 W/m 18,8 km/h (3 Bft) 97,87 %
15.11.2016 17:08 9,3 C 9,4 C 7,8 C 99 % 15 lf 1023,0 hPa 0,0 l/m 0 min 0 min 0 W/m 20,9 km/h (4 Bft) 97,87 %
15.11.2016 17:10 9,3 C 9,4 C 7,8 C 99 % 15 lf 1023,0 hPa 0,0 l/m 0 min 0 min 0 W/m 25,1 km/h (4 Bft) 95,74 %
15.11.2016 17:12 9,3 C 9,4 C 7,8 C 99 % 15 lf 1023,0 hPa 0,0 l/m 0 min 0 min 0 W/m 29,3 km/h (5 Bft) 95,65 %
15.11.2016 17:14 9,3 C 9,4 C 7,8 C 99 % 15 lf 1022,9 hPa 0,0 l/m 0 min 0 min 0 W/m 20,9 km/h (4 Bft) 95,74 %
15.11.2016 17:16 9,3 C 9,4 C 7,8 C 99 % 15 lf 1022,8 hPa 0,0 l/m 0 min 0 min 0 W/m 20,9 km/h (4 Bft) 100,00 %
15.11.2016 17:18 9,3 C 9,4 C 7,8 C 99 % 15 lf 1022,8 hPa 0,0 l/m 0 min 0 min 0 W/m 18,8 km/h (3 Bft) 93,62 %
15.11.2016 17:20 9,3 C 9,4 C 7,8 C 99 % 15 lf 1022,8 hPa 0,0 l/m 0 min 0 min 0 W/m 18,8 km/h (3 Bft) 100,00 %
15.11.2016 17:22 9,3 C 9,4 C 7,8 C 99 % 15 lf 1022,9 hPa 0,0 l/m 0 min 0 min 0 W/m 16,7 km/h (3 Bft) 97,87 %
15.11.2016 17:24 9,3 C 9,4 C 7,8 C 99 % 15 lf 1022,8 hPa 0,0 l/m 0 min 0 min 0 W/m 14,6 km/h (3 Bft) 97,87 %
15.11.2016 17:26 9,3 C 9,4 C 7,8 C 99 % 15 lf 1022,9 hPa 0,0 l/m 0 min 0 min 0 W/m 14,6 km/h (3 Bft) 100,00 %
15.11.2016 17:28 9,3 C 9,4 C 7,8 C 99 % 15 lf 1022,9 hPa 0,0 l/m 0 min 0 min 0 W/m 18,8 km/h (3 Bft) 100,00 %
15.11.2016 17:30 9,4 C 9,4 C 7,8 C 99 % 15 lf 1023,0 hPa 0,0 l/m 0 min 0 min 0 W/m 18,8 km/h (3 Bft) 97,87 %
15.11.2016 17:32 9,4 C 9,4 C 7,8 C 99 % 15 lf 1023,0 hPa 0,0 l/m 0 min 0 min 0 W/m 14,6 km/h (3 Bft) 97,87 %
15.11.2016 17:34 9,4 C 9,4 C 7,8 C 99 % 15 lf 1023,0 hPa 0,0 l/m 0 min 0 min 0 W/m 18,8 km/h (3 Bft) 100,00 %
15.11.2016 17:36 9,4 C 9,4 C 8,3 C 99 % 15 lf 1023,0 hPa 0,0 l/m 0 min 2 min 0 W/m 16,7 km/h (3 Bft) 93,48 %
15.11.2016 17:38 9,4 C 9,4 C 8,3 C 99 % 15 lf 1023,0 hPa 0,0 l/m 0 min 2 min 0 W/m 16,7 km/h (3 Bft) 100,00 %
15.11.2016 17:40 9,4 C 9,4 C 8,3 C 99 % 15 lf 1023,0 hPa 0,0 l/m 0 min 2 min 0 W/m 18,8 km/h (3 Bft) 97,87 %
15.11.2016 17:42 9,4 C 9,4 C 7,8 C 99 % 15 lf 1023,0 hPa 0,2 l/m 0 min 2 min 0 W/m 18,8 km/h (3 Bft) 100,00 %
15.11.2016 17:44 9,4 C 9,4 C 7,8 C 99 % 15 lf 1023,0 hPa 0,0 l/m 0 min 2 min 0 W/m 16,7 km/h (3 Bft) 100,00 %
15.11.2016 17:46 9,4 C 9,4 C 8,3 C 99 % 15 lf 1023,0 hPa 0,0 l/m 0 min 2 min 0 W/m 16,7 km/h (3 Bft) 93,62 %
15.11.2016 17:48 9,4 C 9,4 C 8,3 C 99 % 15 lf 1022,9 hPa 0,0 l/m 0 min 0 min 0 W/m 25,1 km/h (4 Bft) 95,65 %
15.11.2016 17:50 9,4 C 9,4 C 8,3 C 99 % 15 lf 1023,0 hPa 0,0 l/m 0 min 0 min 0 W/m 14,6 km/h (3 Bft) 97,87 %
15.11.2016 17:52 9,4 C 9,4 C 8,3 C 99 % 15 lf 1023,0 hPa 0,0 l/m 0 min 0 min 0 W/m 16,7 km/h (3 Bft) 95,74 %
15.11.2016 17:54 9,4 C 9,4 C 8,3 C 99 % 15 lf 1023,1 hPa 0,0 l/m 0 min 2 min 0 W/m 18,8 km/h (3 Bft) 97,87 %
15.11.2016 17:56 9,4 C 9,4 C 8,3 C 99 % 15 lf 1023,0 hPa 0,0 l/m 0 min 2 min 0 W/m 18,8 km/h (3 Bft) 97,87 %
15.11.2016 17:58 9,4 C 9,4 C 8,3 C 99 % 15 lf 1023,0 hPa 0,0 l/m 0 min 2 min 0 W/m 16,7 km/h (3 Bft) 97,87 %
15.11.2016 18:00 9,4 C 9,4 C 8,3 C 99 % 15 lf 1023,0 hPa 0,0 l/m 0 min 2 min 0 W/m 12,6 km/h (3 Bft) 93,48 %
15.11.2016 18:02 9,4 C 9,4 C 8,3 C 99 % 15 lf 1022,9 hPa 0,0 l/m 0 min 2 min 0 W/m 20,9 km/h (4 Bft) 97,87 %
15.11.2016 18:06 9,4 C 9,4 C 8,3 C 99 % 15 lf 1022,9 hPa 0,0 l/m 0 min 0 min 0 W/m 20,9 km/h (4 Bft) 96,84 %
15.11.2016 18:08 9,4 C 9,4 C 8,3 C 100 % 15 lf 1023,0 hPa 0,0 l/m 0 min 0 min 0 W/m 23,0 km/h (4 Bft) 91,49 %
15.11.2016 18:10 9,5 C 9,4 C 8,3 C 100 % 15 lf 1022,9 hPa 0,0 l/m 0 min 0 min 0 W/m 18,8 km/h (3 Bft) 95,74 %
15.11.2016 18:12 9,5 C 9,4 C 8,3 C 100 % 15 lf 1022,9 hPa 0,0 l/m 0 min 0 min 0 W/m 16,7 km/h (3 Bft) 89,13 %
15.11.2016 18:14 9,5 C 9,4 C 8,3 C 100 % 15 lf 1022,8 hPa 0,0 l/m 0 min 0 min 0 W/m 23,0 km/h (4 Bft) 95,74 %
15.11.2016 18:16 9,5 C 9,4 C 8,3 C 100 % 15 lf 1022,8 hPa 0,0 l/m 0 min 0 min 0 W/m 14,6 km/h (3 Bft) 93,62 %
15.11.2016 18:18 9,5 C 9,4 C 8,3 C 100 % 15 lf 1022,9 hPa 0,0 l/m 0 min 0 min 0 W/m 20,9 km/h (4 Bft) 91,49 %
15.11.2016 18:20 9,5 C 9,4 C 8,3 C 100 % 15 lf 1022,9 hPa 0,0 l/m 0 min 0 min 0 W/m 20,9 km/h (4 Bft) 87,23 %
15.11.2016 18:22 9,6 C 9,4 C 8,3 C 100 % 15 lf 1022,8 hPa 0,0 l/m 0 min 0 min 0 W/m 18,8 km/h (3 Bft) 89,13 %
15.11.2016 18:24 9,6 C 9,4 C 8,3 C 100 % 15 lf 1022,9 hPa 0,0 l/m 0 min 0 min 0 W/m 20,9 km/h (4 Bft) 89,36 %
15.11.2016 18:26 9,6 C 9,4 C 8,3 C 100 % 15 lf 1022,8 hPa 0,0 l/m 0 min 0 min 0 W/m 20,9 km/h (4 Bft) 91,49 %
15.11.2016 18:28 9,6 C 9,4 C 8,3 C 100 % 15 lf 1022,8 hPa 0,0 l/m 0 min 0 min 0 W/m 23,0 km/h (4 Bft) 91,49 %
15.11.2016 18:30 9,6 C 9,4 C 8,3 C 100 % 15 lf 1022,8 hPa 0,0 l/m 0 min 0 min 0 W/m 25,1 km/h (4 Bft) 89,36 %
15.11.2016 18:32 9,6 C 9,4 C 8,3 C 100 % 15 lf 1022,8 hPa 0,0 l/m 0 min 0 min 0 W/m 18,8 km/h (3 Bft) 91,49 %
15.11.2016 18:34 9,6 C 9,4 C 8,3 C 100 % 15 lf 1022,7 hPa 0,0 l/m 0 min 0 min 0 W/m 20,9 km/h (4 Bft) 91,30 %
15.11.2016 18:36 9,6 C 9,4 C 8,3 C 100 % 15 lf 1022,7 hPa 0,0 l/m 0 min 0 min 0 W/m 12,6 km/h (3 Bft) 93,62 %
15.11.2016 18:38 9,6 C 9,4 C 8,3 C 100 % 15 lf 1022,7 hPa 0,0 l/m 0 min 2 min 0 W/m 16,7 km/h (3 Bft) 91,49 %
15.11.2016 18:40 9,6 C 9,4 C 8,3 C 100 % 15 lf 1022,7 hPa 0,0 l/m 0 min 2 min 0 W/m 18,8 km/h (3 Bft) 91,49 %
15.11.2016 18:42 9,6 C 9,4 C 8,3 C 100 % 15 lf 1022,7 hPa 0,0 l/m 0 min 2 min 0 W/m 25,1 km/h (4 Bft) 91,49 %
15.11.2016 18:44 9,6 C 9,4 C 8,3 C 100 % 15 lf 1022,7 hPa 0,0 l/m 0 min 0 min 0 W/m 16,7 km/h (3 Bft) 93,62 %
15.11.2016 18:46 9,7 C 9,4 C 8,3 C 100 % 15 lf 1022,8 hPa 0,0 l/m 0 min 0 min 0 W/m 23,0 km/h (4 Bft) 93,48 %
15.11.2016 18:48 9,7 C 9,4 C 8,3 C 99 % 15 lf 1022,8 hPa 0,0 l/m 0 min 0 min 0 W/m 20,9 km/h (4 Bft) 93,62 %
15.11.2016 18:50 9,7 C 9,4 C 8,3 C 99 % 15 lf 1022,8 hPa 0,0 l/m 0 min 0 min 0 W/m 20,9 km/h (4 Bft) 95,74 %
15.11.2016 18:52 9,7 C 9,4 C 8,3 C 99 % 15 lf 1022,8 hPa 0,0 l/m 0 min 0 min 0 W/m 20,9 km/h (4 Bft) 95,74 %
15.11.2016 18:54 9,7 C 9,4 C 8,3 C 99 % 15 lf 1022,9 hPa 0,0 l/m 0 min 0 min 0 W/m 16,7 km/h (3 Bft) 95,74 %
15.11.2016 18:56 9,7 C 9,4 C 8,3 C 99 % 15 lf 1022,8 hPa 0,0 l/m 0 min 0 min 0 W/m 18,8 km/h (3 Bft) 93,62 %
15.11.2016 18:58 9,7 C 9,4 C 8,3 C 99 % 15 lf 1022,9 hPa 0,0 l/m 0 min 0 min 0 W/m 16,7 km/h (3 Bft) 97,83 %
15.11.2016 19:00 9,7 C 9,4 C 8,3 C 99 % 15 lf 1022,8 hPa 0,0 l/m 0 min 0 min 0 W/m 25,1 km/h (4 Bft) 97,87 %
15.11.2016 19:02 9,7 C 10,0 C 8,3 C 99 % 15 lf 1022,8 hPa 0,0 l/m 0 min 0 min 0 W/m 20,9 km/h (4 Bft) 95,74 %
15.11.2016 19:04 9,7 C 10,0 C 8,3 C 99 % 15 lf 1022,9 hPa 0,0 l/m 0 min 0 min 0 W/m 23,0 km/h (4 Bft) 97,87 %
15.11.2016 19:06 9,7 C 10,0 C 8,3 C 99 % 15 lf 1022,8 hPa 0,0 l/m 0 min 0 min 0 W/m 20,9 km/h (4 Bft) 97,87 %
15.11.2016 19:08 9,7 C 10,0 C 8,3 C 99 % 15 lf 1022,8 hPa 0,0 l/m 0 min 0 min 0 W/m 12,6 km/h (3 Bft) 97,87 %
15.11.2016 19:10 9,7 C 10,0 C 8,3 C 99 % 15 lf 1022,8 hPa 0,0 l/m 0 min 2 min 0 W/m 20,9 km/h (4 Bft) 95,65 %
15.11.2016 19:12 9,7 C 10,0 C 8,3 C 99 % 15 lf 1022,8 hPa 0,0 l/m 0 min 0 min 0 W/m 29,3 km/h (5 Bft) 95,74 %
15.11.2016 19:14 9,7 C 10,0 C 8,3 C 99 % 15 lf 1022,8 hPa 0,0 l/m 0 min 0 min 0 W/m 27,2 km/h (4 Bft) 95,74 %
15.11.2016 19:16 9,8 C 10,0 C 8,3 C 99 % 15 lf 1022,8 hPa 0,0 l/m 0 min 0 min 0 W/m 23,0 km/h (4 Bft) 97,87 %
15.11.2016 19:18 9,8 C 10,0 C 8,3 C 99 % 15 lf 1022,8 hPa 0,0 l/m 0 min 0 min 0 W/m 16,7 km/h (3 Bft) 95,74 %
15.11.2016 19:20 9,8 C 10,0 C 8,3 C 99 % 15 lf 1022,7 hPa 0,0 l/m 0 min 0 min 0 W/m 25,1 km/h (4 Bft) 97,87 %
15.11.2016 19:22 9,8 C 10,0 C 8,3 C 99 % 15 lf 1022,8 hPa 0,0 l/m 0 min 0 min 0 W/m 16,7 km/h (3 Bft) 95,65 %
15.11.2016 19:24 9,8 C 10,0 C 8,3 C 99 % 15 lf 1022,8 hPa 0,0 l/m 0 min 0 min 0 W/m 18,8 km/h (3 Bft) 100,00 %
15.11.2016 19:26 9,8 C 10,0 C 8,3 C 99 % 15 lf 1022,7 hPa 0,0 l/m 0 min 0 min 0 W/m 14,6 km/h (3 Bft) 100,00 %
15.11.2016 19:28 9,8 C 10,0 C 8,3 C 99 % 15 lf 1022,7 hPa 0,0 l/m 0 min 0 min 0 W/m 27,2 km/h (4 Bft) 97,87 %
15.11.2016 19:30 9,8 C 10,0 C 8,3 C 99 % 15 lf 1022,7 hPa 0,0 l/m 0 min 0 min 0 W/m 20,9 km/h (4 Bft) 97,87 %
15.11.2016 19:32 9,8 C 10,0 C 8,3 C 100 % 15 lf 1022,7 hPa 0,0 l/m 0 min 0 min 0 W/m 20,9 km/h (4 Bft) 100,00 %
15.11.2016 19:34 9,8 C 10,0 C 8,3 C 100 % 15 lf 1022,7 hPa 0,0 l/m 0 min 0 min 0 W/m 20,9 km/h (4 Bft) 97,83 %
15.11.2016 19:36 9,8 C 10,0 C 8,3 C 100 % 15 lf 1022,6 hPa 0,0 l/m 0 min 0 min 0 W/m 14,6 km/h (3 Bft) 100,00 %
15.11.2016 19:38 9,8 C 10,0 C 8,3 C 100 % 15 lf 1022,6 hPa 0,0 l/m 0 min 0 min 0 W/m 16,7 km/h (3 Bft) 95,74 %
15.11.2016 19:40 9,8 C 10,0 C 8,3 C 100 % 15 lf 1022,5 hPa 0,0 l/m 0 min 0 min 0 W/m 18,8 km/h (3 Bft) 97,87 %
15.11.2016 19:42 9,8 C 10,0 C 8,3 C 100 % 15 lf 1022,5 hPa 0,0 l/m 0 min 0 min 0 W/m 20,9 km/h (4 Bft) 100,00 %
15.11.2016 19:44 9,9 C 10,0 C 8,3 C 100 % 15 lf 1022,5 hPa 0,0 l/m 0 min 0 min 0 W/m 20,9 km/h (4 Bft) 97,83 %
15.11.2016 19:46 9,9 C 10,0 C 8,3 C 100 % 15 lf 1022,5 hPa 0,0 l/m 0 min 0 min 0 W/m 20,9 km/h (4 Bft) 100,00 %
15.11.2016 19:48 9,9 C 10,0 C 8,3 C 100 % 15 lf 1022,6 hPa 0,0 l/m 0 min 0 min 0 W/m 14,6 km/h (3 Bft) 100,00 %
15.11.2016 19:50 9,9 C 10,0 C 8,3 C 100 % 15 lf 1022,6 hPa 0,0 l/m 0 min 0 min 0 W/m 16,7 km/h (3 Bft) 93,62 %
15.11.2016 19:52 9,9 C 10,0 C 8,3 C 100 % 15 lf 1022,6 hPa 0,0 l/m 0 min 0 min 0 W/m 14,6 km/h (3 Bft) 100,00 %
15.11.2016 19:54 9,9 C 10,0 C 8,9 C 100 % 15 lf 1022,6 hPa 0,0 l/m 0 min 0 min 0 W/m 18,8 km/h (3 Bft) 100,00 %
15.11.2016 19:56 9,9 C 10,0 C 8,3 C 100 % 15 lf 1022,5 hPa 0,0 l/m 0 min 0 min 0 W/m 12,6 km/h (3 Bft) 95,65 %
15.11.2016 19:58 9,9 C 10,0 C 8,9 C 100 % 15 lf 1022,5 hPa 0,0 l/m 0 min 0 min 0 W/m 12,6 km/h (3 Bft) 97,87 %
15.11.2016 20:00 9,9 C 10,0 C 8,3 C 100 % 15 lf 1022,6 hPa 0,0 l/m 0 min 0 min 0 W/m 18,8 km/h (3 Bft) 97,87 %
15.11.2016 20:02 9,9 C 10,0 C 8,9 C 100 % 15 lf 1022,5 hPa 0,0 l/m 0 min 0 min 0 W/m 23,0 km/h (4 Bft) 97,87 %
15.11.2016 20:04 9,9 C 10,0 C 8,9 C 100 % 15 lf 1022,4 hPa 0,0 l/m 0 min 0 min 0 W/m 20,9 km/h (4 Bft) 93,62 %
15.11.2016 20:06 9,9 C 10,0 C 8,9 C 100 % 15 lf 1022,6 hPa 0,0 l/m 0 min 0 min 0 W/m 20,9 km/h (4 Bft) 100,00 %
15.11.2016 20:08 9,9 C 10,0 C 8,9 C 100 % 15 lf 1022,6 hPa 0,0 l/m 0 min 0 min 0 W/m 14,6 km/h (3 Bft) 97,83 %
15.11.2016 20:10 9,9 C 10,0 C 8,9 C 100 % 15 lf 1022,6 hPa 0,0 l/m 0 min 0 min 0 W/m 23,0 km/h (4 Bft) 97,87 %
15.11.2016 20:12 9,9 C 10,0 C 8,9 C 100 % 15 lf 1022,6 hPa 0,0 l/m 0 min 0 min 0 W/m 18,8 km/h (3 Bft) 97,87 %
15.11.2016 20:14 9,9 C 10,0 C 8,9 C 100 % 15 lf 1022,7 hPa 0,0 l/m 0 min 0 min 0 W/m 20,9 km/h (4 Bft) 97,87 %
15.11.2016 20:16 10,0 C 10,0 C 8,9 C 100 % 15 lf 1022,7 hPa 0,0 l/m 0 min 0 min 0 W/m 18,8 km/h (3 Bft) 95,74 %
15.11.2016 20:18 10,0 C 10,0 C 8,9 C 100 % 15 lf 1022,7 hPa 0,0 l/m 0 min 0 min 0 W/m 16,7 km/h (3 Bft) 93,62 %
15.11.2016 20:20 10,0 C 10,0 C 8,9 C 100 % 15 lf 1022,7 hPa 0,0 l/m 0 min 0 min 0 W/m 23,0 km/h (4 Bft) 100,00 %
15.11.2016 20:22 10,0 C 10,0 C 8,9 C 100 % 15 lf 1022,6 hPa 0,0 l/m 0 min 0 min 0 W/m 16,7 km/h (3 Bft) 93,62 %
15.11.2016 20:24 10,0 C 10,0 C 8,9 C 100 % 15 lf 1022,6 hPa 0,0 l/m 0 min 0 min 0 W/m 18,8 km/h (3 Bft) 95,74 %
15.11.2016 20:26 10,0 C 10,0 C 8,9 C 100 % 15 lf 1022,6 hPa 0,0 l/m 0 min 0 min 0 W/m 20,9 km/h (4 Bft) 95,74 %
15.11.2016 20:28 10,0 C 10,0 C 8,9 C 100 % 15 lf 1022,6 hPa 0,0 l/m 0 min 0 min 0 W/m 16,7 km/h (3 Bft) 97,87 %
15.11.2016 20:30 10,0 C 10,0 C 8,9 C 100 % 15 lf 1022,6 hPa 0,0 l/m 0 min 0 min 0 W/m 23,0 km/h (4 Bft) 97,87 %
15.11.2016 20:32 10,0 C 10,0 C 8,9 C 100 % 15 lf 1022,6 hPa 0,0 l/m 0 min 0 min 0 W/m 20,9 km/h (4 Bft) 95,65 %
15.11.2016 20:34 10,0 C 10,0 C 8,9 C 100 % 15 lf 1022,6 hPa 0,0 l/m 0 min 2 min 0 W/m 16,7 km/h (3 Bft) 97,87 %
15.11.2016 20:36 10,0 C 10,0 C 8,9 C 100 % 15 lf 1022,7 hPa 0,0 l/m 0 min 0 min 0 W/m 14,6 km/h (3 Bft) 93,62 %
15.11.2016 20:38 10,1 C 10,0 C 8,9 C 100 % 15 lf 1022,7 hPa 0,0 l/m 0 min 0 min 0 W/m 12,6 km/h (3 Bft) 91,49 %
15.11.2016 20:40 10,1 C 10,0 C 8,9 C 100 % 15 lf 1022,7 hPa 0,0 l/m 0 min 0 min 0 W/m 18,8 km/h (3 Bft) 95,74 %
15.11.2016 20:42 10,1 C 10,0 C 8,9 C 100 % 15 lf 1022,7 hPa 0,0 l/m 0 min 0 min 0 W/m 20,9 km/h (4 Bft) 91,30 %
15.11.2016 20:44 10,1 C 10,0 C 8,9 C 100 % 15 lf 1022,8 hPa 0,0 l/m 0 min 0 min 0 W/m 14,6 km/h (3 Bft) 97,87 %
15.11.2016 20:46 10,1 C 10,0 C 8,9 C 100 % 15 lf 1022,8 hPa 0,2 l/m 0 min 2 min 0 W/m 16,7 km/h (3 Bft) 97,87 %
15.11.2016 20:48 10,1 C 10,0 C 8,9 C 100 % 15 lf 1022,6 hPa 0,0 l/m 0 min 2 min 0 W/m 16,7 km/h (3 Bft) 95,74 %
15.11.2016 20:50 10,1 C 10,0 C 8,9 C 100 % 15 lf 1022,7 hPa 0,0 l/m 0 min 2 min 0 W/m 14,6 km/h (3 Bft) 95,74 %
15.11.2016 20:52 10,1 C 10,0 C 8,9 C 100 % 15 lf 1022,7 hPa 0,0 l/m 0 min 2 min 0 W/m 14,6 km/h (3 Bft) 97,87 %
15.11.2016 20:54 10,1 C 10,0 C 8,9 C 100 % 15 lf 1022,7 hPa 0,0 l/m 0 min 2 min 0 W/m 16,7 km/h (3 Bft) 93,48 %
15.11.2016 20:56 10,1 C 10,0 C 8,9 C 100 % 15 lf 1022,6 hPa 0,0 l/m 0 min 2 min 0 W/m 18,8 km/h (3 Bft) 97,87 %
15.11.2016 20:58 10,1 C 10,0 C 8,9 C 100 % 15 lf 1022,6 hPa 0,0 l/m 0 min 2 min 0 W/m 16,7 km/h (3 Bft) 95,74 %
15.11.2016 21:00 10,1 C 10,0 C 8,9 C 100 % 15 lf 1022,7 hPa 0,0 l/m 0 min 2 min 0 W/m 16,7 km/h (3 Bft) 97,87 %
15.11.2016 21:02 10,1 C 10,0 C 8,9 C 100 % 15 lf 1022,7 hPa 0,2 l/m 0 min 2 min 0 W/m 14,6 km/h (3 Bft) 93,62 %
15.11.2016 21:04 10,1 C 10,0 C 8,9 C 100 % 15 lf 1022,6 hPa 0,0 l/m 0 min 2 min 0 W/m 18,8 km/h (3 Bft) 93,62 %
15.11.2016 21:06 10,1 C 10,0 C 8,9 C 100 % 15 lf 1022,5 hPa 0,0 l/m 0 min 2 min 0 W/m 16,7 km/h (3 Bft) 93,48 %
15.11.2016 21:08 10,1 C 10,0 C 8,9 C 100 % 15 lf 1022,5 hPa 0,0 l/m 0 min 2 min 0 W/m 14,6 km/h (3 Bft) 95,74 %
15.11.2016 21:10 10,1 C 10,0 C 8,9 C 100 % 15 lf 1022,5 hPa 0,0 l/m 0 min 0 min 0 W/m 16,7 km/h (3 Bft) 85,11 %
15.11.2016 21:12 10,1 C 10,0 C 8,9 C 100 % 15 lf 1022,5 hPa 0,0 l/m 0 min 0 min 0 W/m 16,7 km/h (3 Bft) 95,74 %
15.11.2016 21:14 10,1 C 10,0 C 8,9 C 100 % 15 lf 1022,4 hPa 0,0 l/m 0 min 0 min 0 W/m 14,6 km/h (3 Bft) 91,49 %
15.11.2016 21:16 10,1 C 10,0 C 8,9 C 100 % 15 lf 1022,4 hPa 0,0 l/m 0 min 0 min 0 W/m 16,7 km/h (3 Bft) 91,49 %
15.11.2016 21:18 10,1 C 10,0 C 8,9 C 100 % 15 lf 1022,3 hPa 0,0 l/m 0 min 2 min 0 W/m 16,7 km/h (3 Bft) 93,48 %
15.11.2016 21:20 10,1 C 10,0 C 8,9 C 100 % 15 lf 1022,4 hPa 0,0 l/m 0 min 0 min 0 W/m 14,6 km/h (3 Bft) 95,74 %
15.11.2016 21:22 10,1 C 10,0 C 8,9 C 100 % 15 lf 1022,4 hPa 0,0 l/m 0 min 0 min 0 W/m 16,7 km/h (3 Bft) 97,87 %
15.11.2016 21:24 10,1 C 10,0 C 8,9 C 100 % 15 lf 1022,3 hPa 0,0 l/m 0 min 0 min 0 W/m 12,6 km/h (3 Bft) 95,74 %
15.11.2016 21:26 10,1 C 10,0 C 8,9 C 100 % 15 lf 1022,3 hPa 0,0 l/m 0 min 0 min 0 W/m 14,6 km/h (3 Bft) 93,62 %
15.11.2016 21:28 10,1 C 10,0 C 8,9 C 100 % 15 lf 1022,3 hPa 0,0 l/m 0 min 0 min 0 W/m 20,9 km/h (4 Bft) 97,87 %
15.11.2016 21:30 10,1 C 10,0 C 8,9 C 100 % 15 lf 1022,3 hPa 0,0 l/m 0 min 0 min 0 W/m 14,6 km/h (3 Bft) 97,83 %
15.11.2016 21:32 10,2 C 10,0 C 8,9 C 100 % 15 lf 1022,3 hPa 0,0 l/m 0 min 0 min 0 W/m 12,6 km/h (3 Bft) 97,87 %
15.11.2016 21:34 10,2 C 10,0 C 8,9 C 100 % 15 lf 1022,2 hPa 0,0 l/m 0 min 0 min 0 W/m 20,9 km/h (4 Bft) 97,87 %
15.11.2016 21:36 10,2 C 10,0 C 8,9 C 100 % 15 lf 1022,2 hPa 0,0 l/m 0 min 0 min 0 W/m 18,8 km/h (3 Bft) 97,87 %
15.11.2016 21:38 10,2 C 10,0 C 8,9 C 100 % 15 lf 1022,1 hPa 0,0 l/m 0 min 0 min 0 W/m 20,9 km/h (4 Bft) 95,74 %
15.11.2016 21:40 10,2 C 10,0 C 8,9 C 100 % 15 lf 1022,1 hPa 0,0 l/m 0 min 0 min 0 W/m 18,8 km/h (3 Bft) 95,74 %
15.11.2016 21:42 10,2 C 10,0 C 8,9 C 100 % 15 lf 1022,1 hPa 0,0 l/m 0 min 0 min 0 W/m 16,7 km/h (3 Bft) 97,83 %
15.11.2016 21:44 10,2 C 10,0 C 8,9 C 100 % 15 lf 1022,0 hPa 0,0 l/m 0 min 0 min 0 W/m 14,6 km/h (3 Bft) 93,62 %
15.11.2016 21:46 10,2 C 10,0 C 8,9 C 100 % 15 lf 1022,0 hPa 0,0 l/m 0 min 0 min 0 W/m 12,6 km/h (3 Bft) 97,87 %
15.11.2016 21:48 10,2 C 10,0 C 8,9 C 100 % 15 lf 1022,0 hPa 0,0 l/m 0 min 0 min 0 W/m 14,6 km/h (3 Bft) 95,74 %
15.11.2016 21:50 10,2 C 10,0 C 8,9 C 100 % 15 lf 1022,0 hPa 0,0 l/m 0 min 0 min 0 W/m 14,6 km/h (3 Bft) 93,62 %
15.11.2016 21:52 10,2 C 10,0 C 8,9 C 100 % 15 lf 1022,0 hPa 0,0 l/m 0 min 0 min 0 W/m 16,7 km/h (3 Bft) 97,87 %
15.11.2016 21:54 10,2 C 10,0 C 8,9 C 100 % 15 lf 1022,1 hPa 0,0 l/m 0 min 0 min 0 W/m 20,9 km/h (4 Bft) 100,00 %
15.11.2016 21:56 10,2 C 10,0 C 8,9 C 100 % 15 lf 1022,1 hPa 0,0 l/m 0 min 2 min 0 W/m 16,7 km/h (3 Bft) 97,87 %
15.11.2016 21:58 10,2 C 10,0 C 8,9 C 100 % 15 lf 1022,1 hPa 0,0 l/m 0 min 0 min 0 W/m 14,6 km/h (3 Bft) 97,87 %
15.11.2016 22:00 10,2 C 10,0 C 8,9 C 100 % 15 lf 1022,1 hPa 0,0 l/m 0 min 0 min 0 W/m 14,6 km/h (3 Bft) 97,87 %
15.11.2016 22:02 10,2 C 10,0 C 8,9 C 100 % 15 lf 1022,1 hPa 0,0 l/m 0 min 0 min 0 W/m 20,9 km/h (4 Bft) 95,74 %
15.11.2016 22:04 10,2 C 10,0 C 8,9 C 100 % 15 lf 1022,1 hPa 0,0 l/m 0 min 0 min 0 W/m 14,6 km/h (3 Bft) 93,48 %
15.11.2016 22:06 10,2 C 10,0 C 8,9 C 100 % 15 lf 1022,1 hPa 0,0 l/m 0 min 0 min 0 W/m 18,8 km/h (3 Bft) 97,87 %
15.11.2016 22:08 10,3 C 10,6 C 8,9 C 100 % 15 lf 1022,1 hPa 0,0 l/m 0 min 0 min 0 W/m 23,0 km/h (4 Bft) 97,87 %
15.11.2016 22:10 10,3 C 10,6 C 8,9 C 100 % 15 lf 1022,1 hPa 0,0 l/m 0 min 0 min 0 W/m 20,9 km/h (4 Bft) 95,74 %
15.11.2016 22:12 10,3 C 10,6 C 8,9 C 100 % 15 lf 1022,1 hPa 0,0 l/m 0 min 0 min 0 W/m 14,6 km/h (3 Bft) 95,74 %
15.11.2016 22:14 10,3 C 10,6 C 8,9 C 100 % 15 lf 1022,0 hPa 0,0 l/m 0 min 0 min 0 W/m 20,9 km/h (4 Bft) 91,49 %
15.11.2016 22:16 10,3 C 10,6 C 8,9 C 100 % 15 lf 1022,0 hPa 0,0 l/m 0 min 0 min 0 W/m 12,6 km/h (3 Bft) 95,65 %
15.11.2016 22:18 10,3 C 10,6 C 8,9 C 100 % 15 lf 1022,0 hPa 0,0 l/m 0 min 0 min 0 W/m 14,6 km/h (3 Bft) 87,23 %
15.11.2016 22:20 10,3 C 10,6 C 8,9 C 100 % 15 lf 1022,0 hPa 0,0 l/m 0 min 0 min 0 W/m 18,8 km/h (3 Bft) 95,74 %
15.11.2016 22:22 10,3 C 10,6 C 8,9 C 100 % 15 lf 1021,9 hPa 0,0 l/m 0 min 2 min 0 W/m 20,9 km/h (4 Bft) 95,74 %
15.11.2016 22:24 10,3 C 10,6 C 8,9 C 100 % 15 lf 1021,9 hPa 0,0 l/m 0 min 2 min 0 W/m 20,9 km/h (4 Bft) 93,62 %
15.11.2016 22:26 10,3 C 10,6 C 8,9 C 100 % 15 lf 1021,9 hPa 0,0 l/m 0 min 2 min 0 W/m 18,8 km/h (3 Bft) 93,62 %
15.11.2016 22:28 10,4 C 10,6 C 8,9 C 100 % 15 lf 1021,9 hPa 0,0 l/m 0 min 2 min 0 W/m 14,6 km/h (3 Bft) 95,65 %
15.11.2016 22:30 10,3 C 10,6 C 8,9 C 100 % 15 lf 1021,9 hPa 0,0 l/m 0 min 2 min 0 W/m 14,6 km/h (3 Bft) 95,74 %
15.11.2016 22:32 10,3 C 10,6 C 8,9 C 100 % 15 lf 1021,8 hPa 0,0 l/m 0 min 2 min 0 W/m 16,7 km/h (3 Bft) 89,36 %
15.11.2016 22:34 10,4 C 10,6 C 8,9 C 100 % 15 lf 1021,8 hPa 0,0 l/m 0 min 0 min 0 W/m 14,6 km/h (3 Bft) 93,62 %
15.11.2016 22:36 10,4 C 10,6 C 8,9 C 100 % 15 lf 1021,8 hPa 0,0 l/m 0 min 0 min 0 W/m 16,7 km/h (3 Bft) 93,62 %
15.11.2016 22:38 10,4 C 10,6 C 8,9 C 100 % 15 lf 1021,9 hPa 0,0 l/m 0 min 0 min 0 W/m 16,7 km/h (3 Bft) 97,87 %
15.11.2016 22:40 10,4 C 10,6 C 8,9 C 100 % 15 lf 1021,8 hPa 0,0 l/m 0 min 0 min 0 W/m 14,6 km/h (3 Bft) 97,83 %
15.11.2016 22:42 10,4 C 10,6 C 8,9 C 100 % 15 lf 1021,8 hPa 0,0 l/m 0 min 0 min 0 W/m 14,6 km/h (3 Bft) 95,74 %
15.11.2016 22:44 10,4 C 10,6 C 8,9 C 100 % 15 lf 1021,8 hPa 0,0 l/m 0 min 0 min 0 W/m 18,8 km/h (3 Bft) 97,87 %
15.11.2016 22:46 10,4 C 10,6 C 8,9 C 100 % 15 lf 1021,9 hPa 0,0 l/m 0 min 0 min 0 W/m 20,9 km/h (4 Bft) 97,87 %
15.11.2016 22:48 10,4 C 10,6 C 8,9 C 100 % 15 lf 1021,9 hPa 0,0 l/m 0 min 0 min 0 W/m 14,6 km/h (3 Bft) 97,87 %
15.11.2016 22:50 10,4 C 10,6 C 8,9 C 100 % 15 lf 1021,9 hPa 0,0 l/m 0 min 0 min 0 W/m 18,8 km/h (3 Bft) 97,87 %
15.11.2016 22:52 10,4 C 10,6 C 8,9 C 100 % 15 lf 1021,8 hPa 0,0 l/m 0 min 0 min 0 W/m 12,6 km/h (3 Bft) 95,65 %
15.11.2016 22:54 10,4 C 10,6 C 8,9 C 100 % 15 lf 1021,9 hPa 0,0 l/m 0 min 0 min 0 W/m 12,6 km/h (3 Bft) 97,87 %
15.11.2016 22:56 10,4 C 10,6 C 8,9 C 100 % 15 lf 1021,9 hPa 0,0 l/m 0 min 0 min 0 W/m 14,6 km/h (3 Bft) 97,87 %
15.11.2016 22:58 10,4 C 10,6 C 8,9 C 100 % 15 lf 1021,9 hPa 0,0 l/m 0 min 2 min 0 W/m 12,6 km/h (3 Bft) 97,87 %
15.11.2016 23:00 10,4 C 10,6 C 8,9 C 100 % 15 lf 1021,9 hPa 0,0 l/m 0 min 2 min 0 W/m 12,6 km/h (3 Bft) 97,87 %
15.11.2016 23:02 10,4 C 10,6 C 8,9 C 100 % 15 lf 1021,9 hPa 0,0 l/m 0 min 2 min 0 W/m 12,6 km/h (3 Bft) 97,87 %
15.11.2016 23:04 10,4 C 10,6 C 8,9 C 100 % 15 lf 1021,9 hPa 0,0 l/m 0 min 2 min 0 W/m 12,6 km/h (3 Bft) 95,65 %
15.11.2016 23:06 10,4 C 10,6 C 8,9 C 100 % 15 lf 1021,9 hPa 0,0 l/m 0 min 0 min 0 W/m 14,6 km/h (3 Bft) 95,74 %
15.11.2016 23:08 10,4 C 10,6 C 8,9 C 100 % 15 lf 1021,8 hPa 0,0 l/m 0 min 0 min 0 W/m 14,6 km/h (3 Bft) 95,74 %
15.11.2016 23:10 10,4 C 10,6 C 8,9 C 100 % 15 lf 1021,9 hPa 0,0 l/m 0 min 0 min 0 W/m 12,6 km/h (3 Bft) 95,74 %
15.11.2016 23:13 10,4 C 10,6 C 8,9 C 100 % 15 lf 1021,8 hPa 0,0 l/m 0 min 0 min 0 W/m 16,7 km/h (3 Bft) 95,71 %
15.11.2016 23:14 10,4 C 10,6 C 8,9 C 100 % 15 lf 1021,8 hPa 0,0 l/m 0 min 0 min 0 W/m 10,5 km/h (2 Bft) 100,00 %
15.11.2016 23:16 10,4 C 10,6 C 8,9 C 100 % 15 lf 1021,8 hPa 0,0 l/m 0 min 0 min 0 W/m 12,6 km/h (3 Bft) 97,83 %
15.11.2016 23:18 10,4 C 10,6 C 8,9 C 100 % 15 lf 1021,8 hPa 0,0 l/m 0 min 0 min 0 W/m 16,7 km/h (3 Bft) 97,87 %
15.11.2016 23:20 10,4 C 10,6 C 8,9 C 100 % 15 lf 1021,8 hPa 0,0 l/m 0 min 0 min 0 W/m 12,6 km/h (3 Bft) 100,00 %
15.11.2016 23:22 10,4 C 10,6 C 8,9 C 100 % 15 lf 1021,8 hPa 0,0 l/m 0 min 0 min 0 W/m 12,6 km/h (3 Bft) 97,87 %
15.11.2016 23:24 10,4 C 10,6 C 8,9 C 100 % 15 lf 1021,8 hPa 0,0 l/m 0 min 0 min 0 W/m 14,6 km/h (3 Bft) 97,87 %
15.11.2016 23:26 10,4 C 10,6 C 8,9 C 100 % 15 lf 1021,8 hPa 0,0 l/m 0 min 0 min 0 W/m 12,6 km/h (3 Bft) 95,65 %
15.11.2016 23:28 10,4 C 10,6 C 8,9 C 100 % 15 lf 1021,8 hPa 0,0 l/m 0 min 0 min 0 W/m 12,6 km/h (3 Bft) 97,87 %
15.11.2016 23:30 10,4 C 10,6 C 8,9 C 100 % 15 lf 1021,7 hPa 0,0 l/m 0 min 0 min 0 W/m 10,5 km/h (2 Bft) 97,87 %
15.11.2016 23:32 10,4 C 10,6 C 8,9 C 100 % 15 lf 1021,8 hPa 0,0 l/m 0 min 0 min 0 W/m 12,6 km/h (3 Bft) 91,49 %
15.11.2016 23:34 10,4 C 10,6 C 8,9 C 100 % 15 lf 1021,7 hPa 0,0 l/m 0 min 2 min 0 W/m 12,6 km/h (3 Bft) 95,74 %
15.11.2016 23:36 10,4 C 10,6 C 8,9 C 100 % 15 lf 1021,7 hPa 0,0 l/m 0 min 2 min 0 W/m 14,6 km/h (3 Bft) 95,74 %
15.11.2016 23:38 10,4 C 10,6 C 8,9 C 100 % 15 lf 1021,7 hPa 0,0 l/m 0 min 2 min 0 W/m 14,6 km/h (3 Bft) 97,83 %
15.11.2016 23:40 10,4 C 10,6 C 8,9 C 100 % 15 lf 1021,7 hPa 0,0 l/m 0 min 0 min 0 W/m 14,6 km/h (3 Bft) 97,87 %
15.11.2016 23:42 10,4 C 10,6 C 8,9 C 100 % 15 lf 1021,7 hPa 0,0 l/m 0 min 2 min 0 W/m 12,6 km/h (3 Bft) 91,49 %
15.11.2016 23:44 10,4 C 10,6 C 8,9 C 100 % 15 lf 1021,6 hPa 0,0 l/m 0 min 2 min 0 W/m 10,5 km/h (2 Bft) 97,87 %
15.11.2016 23:46 10,4 C 10,6 C 8,9 C 100 % 15 lf 1021,6 hPa 0,2 l/m 0 min 2 min 0 W/m 14,6 km/h (3 Bft) 95,74 %
15.11.2016 23:48 10,4 C 10,6 C 8,9 C 100 % 15 lf 1021,6 hPa 0,0 l/m 0 min 2 min 0 W/m 10,5 km/h (2 Bft) 95,74 %
15.11.2016 23:50 10,4 C 10,6 C 9,4 C 100 % 15 lf 1021,6 hPa 0,0 l/m 0 min 2 min 0 W/m 14,6 km/h (3 Bft) 95,65 %
15.11.2016 23:52 10,5 C 10,6 C 9,4 C 100 % 15 lf 1021,6 hPa 0,0 l/m 0 min 2 min 0 W/m 12,6 km/h (3 Bft) 95,74 %
15.11.2016 23:54 10,5 C 10,6 C 9,4 C 100 % 15 lf 1021,5 hPa 0,0 l/m 0 min 2 min 0 W/m 14,6 km/h (3 Bft) 97,87 %
15.11.2016 23:56 10,5 C 10,6 C 9,4 C 100 % 15 lf 1021,5 hPa 0,0 l/m 0 min 2 min 0 W/m 12,6 km/h (3 Bft) 91,49 %
15.11.2016 23:58 10,5 C 10,6 C 9,4 C 100 % 15 lf 1021,5 hPa 0,0 l/m 0 min 2 min 0 W/m 16,7 km/h (3 Bft) 93,62 %
_ Min-Zeit 00:00 00:00 00:00 00:00 00:54 23:54 - - - - 03:20 21:10
Minimum _ 3,8 C 3,9 C 2,8 C 95 % 0 lf 1021,5 hPa - - - - 6,3 km/h (2 Bft) 85,11 %
_ Max-Zeit 23:46 22:08 23:50 18:08 03:14 00:00 00:30 00:00 00:00 13:36 14:04 00:06
Maximum _ 10,5 C 10,6 C 9,4 C 100 % 15 lf 1027,6 hPa 0,2 l/m 0 min 2 min 108 W/m 31,4 km/h
SW (5 Bft)
100,00 %
Durchschnitt _ 7,4 C 7,5 C 6,3 C 99 % 14 lf 1024,0 hPa #4,8 l/m #0 min. #6:53 h 28 W/m 16,5 km/h (3 Bft) 96,06 %
© 2016 W. Hausmann